M I D A S
Marine Information and Data Acquisition System
Tripno 1263 of the Zeeleeuw from 2007-04-13 07:27:27 to 2007-04-13 15:20:58
Back to CruiseResearch ActivitiesStationsMapUnderway DataData graphs

EquipmentUnitsComment
TimeDGPSUTC
LatitudeDGPSDM.mWGS84
LongitudeDGPSDM.mWGS84
TemperatureSBE03/SBE38deg celciusITS90
ConductivitySBE21S/mITS90
SalinitySBE21 Practical Salinity Units
ChlorophylAChelsea fluorimeterg/lCalibrated in Aceton
Missing or incorrect values are displayed as -999
Sea surface data collected by the RV Zeeleeuw from 2007-04-13 07:29:40 to 2007-04-13 15:22:38
                                                                                    Next 1000 lines
Time Latitude Longitude Temperature Conductivity Salinity ChlorophylA
2007-04-13 07:29:50 51°13.602 2°56.097 11.8923 3.177383 25.971376 -2.871232
2007-04-13 07:29:55 51°13.602 2°56.095 11.9059 3.178522 25.989228 -2.871232
2007-04-13 07:30:00 51°13.602 2°56.093 11.9377 3.175417 25.961813 -2.871232
2007-04-13 07:30:05 51°13.603 2°56.089 11.9529 3.170346 25.910978 -2.871232
2007-04-13 07:30:10 51°13.604 2°56.084 11.9507 3.170346 25.910978 -2.871232
2007-04-13 07:30:15 51°13.605 2°56.078 11.9223 3.157617 25.784809 -2.871232
2007-04-13 07:30:20 51°13.607 2°56.072 11.9342 3.137128 25.576489 -2.871232
2007-04-13 07:30:25 51°13.609 2°56.064 11.9315 3.124607 25.439121 -2.871232
2007-04-13 07:30:30 51°13.61 2°56.057 11.9123 3.112293 25.311293 -2.871232
2007-04-13 07:30:35 51°13.612 2°56.05 11.8945 3.101118 25.191475 -2.871232
2007-04-13 07:30:40 51°13.613 2°56.043 11.8878 3.101118 25.191475 -2.871232
2007-04-13 07:30:45 51°13.615 2°56.036 11.8679 3.086529 25.051002 -2.871232
2007-04-13 07:30:50 51°13.617 2°56.028 11.859 3.089116 25.078417 -2.871232
2007-04-13 07:30:55 51°13.618 2°56.021 11.846 3.078459 24.984758 -2.871232
2007-04-13 07:31:00 51°13.62 2°56.013 11.8412 3.076079 24.967065 -2.871232
2007-04-13 07:31:05 51°13.622 2°56.006 11.8275 3.069354 24.914062 -2.871232
2007-04-13 07:31:10 51°13.624 2°55.999 11.833 3.069354 24.914062 -2.871232
2007-04-13 07:31:15 51°13.626 2°55.991 11.8272 3.065009 24.882964 -2.871232
2007-04-13 07:31:20 51°13.628 2°55.984 11.8206 3.051249 24.771717 -2.871232
2007-04-13 07:31:25 51°13.63 2°55.977 11.8098 3.043179 24.708417 -2.871232
2007-04-13 07:31:30 51°13.632 2°55.969 11.7975 3.040076 24.690182 -2.871232
2007-04-13 07:31:35 51°13.634 2°55.961 11.8021 3.043697 24.729814 -2.871232
2007-04-13 07:31:40 51°13.636 2°55.954 11.8035 3.043697 24.729814 -2.871232
2007-04-13 07:31:45 51°13.639 2°55.946 11.7964 3.038835 24.692216 -2.871232
2007-04-13 07:31:50 51°13.641 2°55.938 11.7955 3.034697 24.659308 -2.871232
2007-04-13 07:31:55 51°13.644 2°55.931 11.7919 3.023834 24.568513 -2.871232
2007-04-13 07:32:00 51°13.646 2°55.924 11.7864 3.030248 24.631975 -2.871232
2007-04-13 07:32:05 51°13.649 2°55.916 11.785 3.034386 24.67387 -2.871232
2007-04-13 07:32:10 51°13.652 2°55.909 11.7807 3.034386 24.67387 -2.871232
2007-04-13 07:32:15 51°13.655 2°55.901 11.7735 3.032835 24.662343 -2.871232
2007-04-13 07:32:21 51°13.658 2°55.891 11.7616 3.03418 24.676802 -2.871232
2007-04-13 07:32:25 51°13.661 2°55.884 11.7598 3.028697 24.630007 -2.871232
2007-04-13 07:32:30 51°13.664 2°55.876 11.7526 3.0228 24.581293 -2.871232
2007-04-13 07:32:35 51°13.667 2°55.869 11.7322 3.026835 24.621069 -2.871232
2007-04-13 07:32:40 51°13.67 2°55.861 11.7291 3.026835 24.621069 -2.871232
2007-04-13 07:32:45 51°13.672 2°55.854 11.7216 3.03118 24.66365 -2.871232
2007-04-13 07:32:50 51°13.675 2°55.847 11.7151 3.032111 24.676799 -2.871232
2007-04-13 07:32:55 51°13.677 2°55.84 11.7173 3.034594 24.70509 -2.871232
2007-04-13 07:33:00 51°13.68 2°55.833 11.7199 3.038215 24.743019 -2.871232
2007-04-13 07:33:05 51°13.682 2°55.827 11.7216 3.047526 24.833326 -2.871232
2007-04-13 07:33:10 51°13.684 2°55.82 11.7234 3.047526 24.833326 -2.871232
2007-04-13 07:33:15 51°13.687 2°55.814 11.7278 3.057355 24.928372 -2.871232
2007-04-13 07:33:20 51°13.689 2°55.808 11.7265 3.067908 25.030032 -2.871232
2007-04-13 07:33:25 51°13.691 2°55.802 11.7231 3.070805 25.062211 -2.871232
2007-04-13 07:33:30 51°13.693 2°55.796 11.7155 3.072046 25.075223 -2.871232
2007-04-13 07:33:35 51°13.694 2°55.79 11.7224 3.065839 25.020528 -2.871232
2007-04-13 07:33:40 51°13.696 2°55.784 11.7162 3.065839 25.020528 -2.871232
2007-04-13 07:33:45 51°13.698 2°55.778 11.7172 3.056113 24.932355 -2.871232
2007-04-13 07:33:50 51°13.7 2°55.772 11.7146 3.053734 24.909724 -2.871232
2007-04-13 07:33:55 51°13.701 2°55.767 11.7116 3.049595 24.871875 -2.871232
2007-04-13 07:34:00 51°13.703 2°55.762 11.7082 3.044009 24.824025 -2.871232
2007-04-13 07:34:05 51°13.704 2°55.758 11.7039 3.042147 24.809081 -2.871232
2007-04-13 07:34:10 51°13.705 2°55.754 11.7067 3.042147 24.809081 -2.871232
2007-04-13 07:34:15 51°13.706 2°55.75 11.7033 3.041009 24.800652 -2.871232
2007-04-13 07:34:20 51°13.707 2°55.746 11.7088 3.042147 24.811495 -2.871232
2007-04-13 07:34:25 51°13.707 2°55.743 11.7106 3.050734 24.890592 -2.871232
2007-04-13 07:34:30 51°13.708 2°55.74 11.708 3.055493 24.935865 -2.871232
2007-04-13 07:34:35 51°13.708 2°55.736 11.7152 3.056424 24.946071 -2.871232
2007-04-13 07:34:40 51°13.709 2°55.734 11.7192 3.056424 24.946071 -2.871232
2007-04-13 07:34:45 51°13.71 2°55.733 11.7223 3.059528 24.976457 -2.871232
2007-04-13 07:34:50 51°13.71 2°55.733 11.7162 3.05839 24.966813 -2.871232
2007-04-13 07:34:55 51°13.712 2°55.734 11.7114 3.057355 24.956887 -2.871232
2007-04-13 07:35:00 51°13.713 2°55.737 11.7098 3.054562 24.931727 -2.871232
2007-04-13 07:35:05 51°13.713 2°55.74 11.7111 3.054148 24.92618 -2.871232
2007-04-13 07:35:10 51°13.713 2°55.742 11.7097 3.054148 24.92618 -2.871232
2007-04-13 07:35:15 51°13.714 2°55.743 11.709 3.049492 24.883049 -2.871232
2007-04-13 07:35:20 51°13.714 2°55.744 11.7185 3.050734 24.89362 -2.871232
2007-04-13 07:35:25 51°13.714 2°55.745 11.7198 3.049803 24.885843 -2.871232
2007-04-13 07:35:30 51°13.714 2°55.745 11.7204 3.045975 24.852592 -2.871232
2007-04-13 07:35:35 51°13.714 2°55.744 11.7243 3.046492 24.857854 -2.871232
2007-04-13 07:35:40 51°13.714 2°55.742 11.7243 3.046492 24.857854 -2.871232
2007-04-13 07:35:45 51°13.713 2°55.74 11.7284 3.041009 24.809102 -2.871232
2007-04-13 07:35:50 51°13.712 2°55.738 11.7262 3.040491 24.804446 -2.871232
2007-04-13 07:35:55 51°13.711 2°55.736 11.7226 3.038733 24.786205 -2.871232
2007-04-13 07:36:00 51°13.711 2°55.734 11.7104 3.028491 24.692862 -2.871232
2007-04-13 07:36:05 51°13.71 2°55.731 11.7047 3.022284 24.635844 -2.871232
2007-04-13 07:36:10 51°13.709 2°55.729 11.6995 3.022284 24.635844 -2.871232
2007-04-13 07:36:15 51°13.709 2°55.728 11.6866 3.01649 24.58197 -2.871232
2007-04-13 07:36:20 51°13.71 2°55.728 11.6792 3.013697 24.555672 -2.871232
2007-04-13 07:36:25 51°13.711 2°55.729 11.6703 3.011732 24.538009 -2.871232
2007-04-13 07:36:30 51°13.712 2°55.73 11.6703 3.02187 24.632124 -2.871232
2007-04-13 07:36:35 51°13.714 2°55.731 11.6664 3.031284 24.722798 -2.871232
2007-04-13 07:36:41 51°13.716 2°55.731 11.6734 3.031284 24.722798 -2.871232
2007-04-13 07:36:45 51°13.718 2°55.732 11.6714 3.042768 24.830975 -2.871232
2007-04-13 07:36:50 51°13.72 2°55.732 11.6685 3.059011 24.984567 -2.871232
2007-04-13 07:36:55 51°13.722 2°55.733 11.6704 3.072357 25.112228 -2.871232
2007-04-13 07:37:00 51°13.725 2°55.732 11.68 3.078772 25.173781 -2.871232
2007-04-13 07:37:05 51°13.728 2°55.732 11.6842 3.085808 25.240975 -2.871232
2007-04-13 07:37:10 51°13.731 2°55.731 11.6817 3.085808 25.240975 -2.871232
2007-04-13 07:37:15 51°13.734 2°55.729 11.6753 3.079083 25.182105 -2.871232
2007-04-13 07:37:20 51°13.737 2°55.727 11.672 3.090671 25.287351 -2.871232
2007-04-13 07:37:25 51°13.74 2°55.725 11.6736 3.086739 25.252459 -2.871232
2007-04-13 07:37:30 51°13.744 2°55.722 11.6728 3.081048 25.199236 -2.871232
2007-04-13 07:37:35 51°13.749 2°55.717 11.6721 3.075461 25.146355 -2.871232
2007-04-13 07:37:40 51°13.755 2°55.711 11.6793 3.075461 25.146355 -2.871232
2007-04-13 07:37:45 51°13.761 2°55.704 11.6948 3.075047 25.142008 -2.871232
2007-04-13 07:37:51 51°13.77 2°55.695 11.7096 3.070185 25.099356 -2.871232
2007-04-13 07:37:55 51°13.775 2°55.689 11.721 3.076599 25.159691 -2.871232
2007-04-13 07:38:00 51°13.782 2°55.682 11.73 3.07691 25.162493 -2.871232
2007-04-13 07:38:05 51°13.79 2°55.674 11.7447 3.077117 25.164974 -2.871232
2007-04-13 07:38:10 51°13.799 2°55.665 11.753 3.077117 25.164974 -2.871232
2007-04-13 07:38:15 51°13.808 2°55.657 11.7619 3.072771 25.123918 -2.871232
2007-04-13 07:38:20 51°13.817 2°55.649 11.7686 3.05539 24.959836 -2.871232
2007-04-13 07:38:25 51°13.827 2°55.641 11.7707 3.03594 24.776144 -2.871232
2007-04-13 07:38:30 51°13.836 2°55.633 11.7669 3.015973 24.588686 -2.871232
2007-04-13 07:38:35 51°13.847 2°55.626 11.7624 2.999835 24.434113 -2.871232
2007-04-13 07:38:40 51°13.856 2°55.618 11.7647 2.999835 24.434113 -2.871232
2007-04-13 07:38:45 51°13.867 2°55.61 11.7624 2.986801 24.309389 -2.871232
2007-04-13 07:38:50 51°13.877 2°55.602 11.7553 2.971491 24.164416 -2.871232
2007-04-13 07:38:55 51°13.888 2°55.595 11.7607 2.964561 24.09644 -2.871232
2007-04-13 07:39:00 51°13.898 2°55.587 11.7545 2.959596 24.049039 -2.871232
2007-04-13 07:39:05 51°13.909 2°55.579 11.7588 2.956803 24.024027 -2.871232
2007-04-13 07:39:10 51°13.92 2°55.571 11.7581 2.956803 24.024027 -2.871232
2007-04-13 07:39:15 51°13.93 2°55.563 11.7606 2.955872 24.016274 -2.871232
2007-04-13 07:39:20 51°13.941 2°55.555 11.7651 2.960734 24.060399 -2.871232
2007-04-13 07:39:25 51°13.951 2°55.547 11.76 2.963113 24.083466 -2.871232
2007-04-13 07:39:30 51°13.962 2°55.538 11.7571 2.961975 24.075028 -2.871232
2007-04-13 07:39:35 51°13.973 2°55.53 11.7431 2.963113 24.084637 -2.871232
2007-04-13 07:39:40 51°13.984 2°55.522 11.7385 2.963113 24.084637 -2.871232
2007-04-13 07:39:45 51°13.995 2°55.514 11.7311 2.955148 24.013291 -2.871232
2007-04-13 07:39:50 51°14.005 2°55.506 11.7244 2.946046 23.930623 -2.871232
2007-04-13 07:39:55 51°14.016 2°55.497 11.72 2.938909 23.866164 -2.871232
2007-04-13 07:40:00 51°14.027 2°55.489 11.7142 2.939116 23.869175 -2.871232
2007-04-13 07:40:05 51°14.038 2°55.481 11.7115 2.943253 23.909692 -2.871232
2007-04-13 07:40:10 51°14.049 2°55.473 11.7047 2.943253 23.909692 -2.871232
2007-04-13 07:40:15 51°14.059 2°55.465 11.703 2.9537 24.007907 -2.871232
2007-04-13 07:40:20 51°14.07 2°55.457 11.7036 2.965699 24.119531 -2.871232
2007-04-13 07:40:25 51°14.081 2°55.449 11.7034 2.975526 24.212945 -2.871232
2007-04-13 07:40:30 51°14.091 2°55.441 11.7073 2.991663 24.362503 -2.871232
2007-04-13 07:40:35 51°14.102 2°55.433 11.7057 2.999421 24.436341 -2.871232
2007-04-13 07:40:40 51°14.113 2°55.424 11.703 2.999421 24.436341 -2.871232
2007-04-13 07:40:45 51°14.124 2°55.416 11.6981 3.006145 24.500336 -2.871232
2007-04-13 07:40:50 51°14.135 2°55.408 11.6945 3.014525 24.578655 -2.871232
2007-04-13 07:40:56 51°14.148 2°55.397 11.6942 3.012766 24.564635 -2.871232
2007-04-13 07:41:00 51°14.156 2°55.389 11.6901 3.020835 24.637809 -2.871232
2007-04-13 07:41:05 51°14.167 2°55.38 11.6922 3.021663 24.644654 -2.871232
2007-04-13 07:41:10 51°14.177 2°55.37 11.6883 3.021663 24.644654 -2.871232
2007-04-13 07:41:15 51°14.187 2°55.36 11.6803 3.021766 24.647385 -2.871232
2007-04-13 07:41:20 51°14.197 2°55.349 11.6799 3.024249 24.672126 -2.871232
2007-04-13 07:41:25 51°14.206 2°55.338 11.6783 3.027353 24.702462 -2.871232
2007-04-13 07:41:30 51°14.216 2°55.326 11.6792 3.02187 24.654919 -2.871232
2007-04-13 07:41:35 51°14.226 2°55.312 11.6862 3.025801 24.692705 -2.871232
2007-04-13 07:41:40 51°14.236 2°55.299 11.6872 3.025801 24.692705 -2.871232
2007-04-13 07:41:45 51°14.246 2°55.283 11.6944 3.029836 24.730834 -2.871232
2007-04-13 07:41:50 51°14.256 2°55.267 11.6926 3.032215 24.754672 -2.871232
2007-04-13 07:41:55 51°14.267 2°55.25 11.6884 3.029939 24.737189 -2.871232
2007-04-13 07:42:00 51°14.277 2°55.232 11.691 3.027767 24.718226 -2.871232
2007-04-13 07:42:05 51°14.287 2°55.213 11.687 3.020008 24.647766 -2.871232
2007-04-13 07:42:10 51°14.297 2°55.194 11.684 3.020008 24.647766 -2.871232
2007-04-13 07:42:15 51°14.308 2°55.174 11.6776 3.016387 24.613375 -2.871232
2007-04-13 07:42:20 51°14.319 2°55.153 11.672 3.006973 24.526877 -2.871232
2007-04-13 07:42:25 51°14.33 2°55.132 11.6641 3.003042 24.490923 -2.871232
2007-04-13 07:42:30 51°14.341 2°55.111 11.6667 3.00056 24.469192 -2.871232
2007-04-13 07:42:35 51°14.353 2°55.091 11.6634 3.008835 24.544226 -2.871232
2007-04-13 07:42:40 51°14.367 2°55.071 11.6562 3.008835 24.544226 -2.871232
2007-04-13 07:42:45 51°14.38 2°55.053 11.648 3.009146 24.548812 -2.871232
2007-04-13 07:42:50 51°14.396 2°55.038 11.6315 3.016698 24.619767 -2.871232
2007-04-13 07:42:55 51°14.411 2°55.022 11.6211 3.025698 24.703206 -2.871232
2007-04-13 07:43:00 51°14.427 2°55.007 11.6175 3.04163 24.849766 -2.871232
2007-04-13 07:43:05 51°14.442 2°54.991 11.576 3.045354 24.884552 -2.871232
2007-04-13 07:43:10 51°14.457 2°54.975 11.5612 3.045354 24.884552 -2.871232
2007-04-13 07:43:15 51°14.471 2°54.958 11.5109 3.079186 25.194091 -2.871232
2007-04-13 07:43:20 51°14.486 2°54.941 11.4766 3.101846 25.404399 -2.871232
2007-04-13 07:43:25 51°14.501 2°54.924 11.4258 3.116642 25.544462 -2.871232
2007-04-13 07:43:30 51°14.515 2°54.907 11.438 3.143857 25.799087 -2.871232
2007-04-13 07:43:35 51°14.53 2°54.89 11.3882 3.169934 26.050217 -2.871232
2007-04-13 07:43:40 51°14.544 2°54.873 11.3414 3.169934 26.050217 -2.871232
2007-04-13 07:43:45 51°14.559 2°54.856 11.3414 3.202844 26.367278 -2.871232
2007-04-13 07:43:50 51°14.574 2°54.839 11.332 3.238758 26.721761 -2.871232
2007-04-13 07:43:55 51°14.589 2°54.822 11.3553 3.271777 27.056988 -2.871232
2007-04-13 07:44:00 51°14.603 2°54.804 11.3214 3.297138 27.315227 -2.871232
2007-04-13 07:44:05 51°14.618 2°54.787 11.3283 3.327469 27.617854 -2.871232
2007-04-13 07:44:10 51°14.633 2°54.77 11.3131 3.327469 27.617854 -2.871232
2007-04-13 07:44:15 51°14.648 2°54.753 11.3221 3.343516 27.794689 -2.871232
2007-04-13 07:44:20 51°14.663 2°54.735 11.3277 3.364843 28.014492 -2.871232
2007-04-13 07:44:25 51°14.678 2°54.719 11.3329 3.367328 28.046379 -2.871232
2007-04-13 07:44:30 51°14.693 2°54.702 11.3186 3.382651 28.194707 -2.871232
2007-04-13 07:44:35 51°14.708 2°54.686 11.3081 3.377785 28.156723 -2.871232
2007-04-13 07:44:40 51°14.724 2°54.671 11.3002 3.377785 28.156723 -2.871232
2007-04-13 07:44:45 51°14.74 2°54.656 11.282 3.401702 28.383252 -2.871232
2007-04-13 07:44:51 51°14.759 2°54.637 11.2537 3.405015 28.415283 -2.871232
2007-04-13 07:44:55 51°14.772 2°54.626 11.2036 3.408018 28.445151 -2.871232
2007-04-13 07:45:00 51°14.788 2°54.611 11.2029 3.415059 28.512382 -2.871232
2007-04-13 07:45:05 51°14.804 2°54.597 11.1968 3.409881 28.469406 -2.871232
2007-04-13 07:45:10 51°14.82 2°54.583 11.1711 3.409881 28.469406 -2.871232
2007-04-13 07:45:15 51°14.837 2°54.569 11.1624 3.412056 28.497252 -2.871232
2007-04-13 07:45:20 51°14.853 2°54.555 11.1271 3.421375 28.596912 -2.871232
2007-04-13 07:45:25 51°14.869 2°54.541 11.1305 3.428313 28.681001 -2.871232
2007-04-13 07:45:30 51°14.885 2°54.527 11.1287 3.421583 28.639828 -2.871232
2007-04-13 07:45:35 51°14.901 2°54.513 11.1184 3.429867 28.735149 -2.871232
2007-04-13 07:45:40 51°14.917 2°54.499 11.1163 3.429867 28.735149 -2.871232
2007-04-13 07:45:45 51°14.934 2°54.485 11.1165 3.428935 28.741425 -2.871232
2007-04-13 07:45:50 51°14.95 2°54.471 11.1156 3.426347 28.736582 -2.871232
2007-04-13 07:45:55 51°14.966 2°54.457 11.1129 3.432456 28.810501 -2.871232
2007-04-13 07:46:00 51°14.982 2°54.443 11.1165 3.437012 28.863621 -2.871232
2007-04-13 07:46:05 51°14.997 2°54.429 11.1176 3.436805 28.868851 -2.871232
2007-04-13 07:46:10 51°15.013 2°54.415 11.1057 3.436805 28.868851 -2.871232
2007-04-13 07:46:15 51°15.029 2°54.4 11.0972 3.437634 28.881578 -2.871232
2007-04-13 07:46:20 51°15.045 2°54.386 11.0914 3.441051 28.917707 -2.871232
2007-04-13 07:46:25 51°15.061 2°54.372 11.0874 3.44219 28.931907 -2.871232
2007-04-13 07:46:30 51°15.078 2°54.358 11.0858 3.440637 28.919588 -2.871232
2007-04-13 07:46:35 51°15.093 2°54.344 11.0783 3.44074 28.920553 -2.871232
2007-04-13 07:46:40 51°15.109 2°54.329 11.0615 3.44074 28.920553 -2.871232
2007-04-13 07:46:45 51°15.125 2°54.315 11.0563 3.440119 28.919788 -2.871232
2007-04-13 07:46:51 51°15.145 2°54.298 11.0572 3.431732 28.846655 -2.871232
2007-04-13 07:46:55 51°15.158 2°54.287 11.0553 3.432353 28.858174 -2.871232
2007-04-13 07:47:00 51°15.174 2°54.272 11.0505 3.442294 28.955863 -2.871232
2007-04-13 07:47:05 51°15.189 2°54.258 11.0424 3.439602 28.935071 -2.871232
2007-04-13 07:47:10 51°15.206 2°54.244 11.0358 3.439602 28.935071 -2.871232
2007-04-13 07:47:15 51°15.222 2°54.23 11.0299 3.440948 28.956255 -2.871232
2007-04-13 07:47:20 51°15.239 2°54.217 11.0257 3.437738 28.932782 -2.871232
2007-04-13 07:47:25 51°15.255 2°54.204 11.0215 3.441569 28.973568 -2.871232
2007-04-13 07:47:30 51°15.272 2°54.191 11.0151 3.44333 28.99288 -2.871232
2007-04-13 07:47:35 51°15.288 2°54.178 11.0038 3.438981 28.959488 -2.871232
2007-04-13 07:47:40 51°15.305 2°54.166 11.0024 3.438981 28.959488 -2.871232
2007-04-13 07:47:45 51°15.321 2°54.153 10.9929 3.443123 29.001761 -2.871232
2007-04-13 07:47:50 51°15.338 2°54.14 10.9938 3.443744 29.013335 -2.871232
2007-04-13 07:47:55 51°15.354 2°54.127 10.9721 3.446229 29.042326 -2.871232
2007-04-13 07:48:00 51°15.371 2°54.115 10.9627 3.429248 28.888763 -2.871232
2007-04-13 07:48:05 51°15.387 2°54.102 10.9604 3.471807 29.293807 -2.871232
2007-04-13 07:48:10 51°15.403 2°54.089 10.951 3.471807 29.293807 -2.871232
2007-04-13 07:48:15 51°15.42 2°54.075 10.9471 3.473568 29.316118 -2.871232
2007-04-13 07:48:20 51°15.436 2°54.063 10.9429 3.47481 29.334323 -2.871232
2007-04-13 07:48:25 51°15.453 2°54.05 10.9482 3.475535 29.347688 -2.871232
2007-04-13 07:48:30 51°15.469 2°54.038 10.9407 3.476468 29.365926 -2.871232
2007-04-13 07:48:35 51°15.486 2°54.025 10.9307 3.476778 29.377622 -2.871232
2007-04-13 07:48:40 51°15.502 2°54.012 10.9344 3.476778 29.377622 -2.871232
2007-04-13 07:48:45 51°15.519 2°54 10.926 3.477193 29.389562 -2.871232
2007-04-13 07:48:50 51°15.535 2°53.987 10.9233 3.477607 29.398577 -2.871232
2007-04-13 07:48:55 51°15.552 2°53.975 10.9243 3.477607 29.40371 -2.871232
2007-04-13 07:49:00 51°15.568 2°53.962 10.9094 3.4774 29.403968 -2.871232
2007-04-13 07:49:05 51°15.584 2°53.949 10.916 3.477918 29.414694 -2.871232
2007-04-13 07:49:10 51°15.601 2°53.937 10.9213 3.477918 29.414694 -2.871232
2007-04-13 07:49:15 51°15.617 2°53.924 10.9141 3.477918 29.418365 -2.871232
2007-04-13 07:49:20 51°15.634 2°53.911 10.9142 3.478022 29.422273 -2.871232
2007-04-13 07:49:25 51°15.65 2°53.898 10.9053 3.478022 29.425945 -2.871232
2007-04-13 07:49:30 51°15.666 2°53.885 10.9112 3.478125 29.43059 -2.871232
2007-04-13 07:49:35 51°15.683 2°53.873 10.9097 3.478022 29.432557 -2.871232
2007-04-13 07:49:40 51°15.7 2°53.86 10.9011 3.478022 29.432557 -2.871232
2007-04-13 07:49:45 51°15.716 2°53.848 10.8972 3.477711 29.430376 -2.871232
2007-04-13 07:49:50 51°15.733 2°53.835 10.9034 3.477711 29.434051 -2.871232
2007-04-13 07:49:55 51°15.749 2°53.823 10.9004 3.477608 29.435284 -2.871232
2007-04-13 07:50:00 51°15.766 2°53.81 10.8922 3.477711 29.437726 -2.871232
2007-04-13 07:50:05 51°15.783 2°53.797 10.8917 3.477297 29.435308 -2.871232
2007-04-13 07:50:10 51°15.799 2°53.785 10.8876 3.477297 29.435308 -2.871232
2007-04-13 07:50:15 51°15.816 2°53.772 10.8743 3.477815 29.443111 -2.871232
2007-04-13 07:50:20 51°15.833 2°53.76 10.8728 3.477918 29.447025 -2.871232
2007-04-13 07:50:25 51°15.849 2°53.747 10.8706 3.477504 29.443871 -2.871232
2007-04-13 07:50:30 51°15.866 2°53.735 10.8642 3.477608 29.448522 -2.871232
2007-04-13 07:50:35 51°15.883 2°53.722 10.8586 3.477401 29.44952 -2.871232
2007-04-13 07:50:40 51°15.899 2°53.71 10.8518 3.477401 29.44952 -2.871232
2007-04-13 07:50:45 51°15.916 2°53.698 10.8468 3.477401 29.4532 -2.871232
2007-04-13 07:50:50 51°15.933 2°53.686 10.8351 3.477711 29.462008 -2.871232
2007-04-13 07:50:55 51°15.95 2°53.674 10.8231 3.477297 29.462535 -2.871232
2007-04-13 07:51:00 51°15.967 2°53.662 10.8112 3.477297 29.467692 -2.871232
2007-04-13 07:51:05 51°15.984 2°53.65 10.8046 3.47709 29.46943 -2.871232
2007-04-13 07:51:10 51°16.001 2°53.638 10.7737 3.47709 29.46943 -2.871232
2007-04-13 07:51:15 51°16.018 2°53.626 10.7625 3.476883 29.47338 -2.871232
2007-04-13 07:51:20 51°16.034 2°53.613 10.7519 3.476573 29.477833 -2.871232
2007-04-13 07:51:25 51°16.051 2°53.601 10.746 3.476573 29.483735 -2.871232
2007-04-13 07:51:30 51°16.067 2°53.588 10.7264 3.476055 29.489197 -2.871232
2007-04-13 07:51:35 51°16.084 2°53.575 10.722 3.475848 29.498326 -2.871232
2007-04-13 07:51:40 51°16.101 2°53.563 10.715 3.475848 29.498326 -2.871232
2007-04-13 07:51:45 51°16.117 2°53.55 10.693 3.475952 29.515563 -2.871232
2007-04-13 07:51:50 51°16.134 2°53.537 10.6822 3.475952 29.531105 -2.871232
2007-04-13 07:51:55 51°16.15 2°53.525 10.6694 3.475745 29.541746 -2.871232
2007-04-13 07:52:00 51°16.167 2°53.512 10.6508 3.475953 29.557045 -2.871232
2007-04-13 07:52:05 51°16.183 2°53.499 10.6414 3.475746 29.563253 -2.871232
2007-04-13 07:52:10 51°16.199 2°53.486 10.6241 3.475746 29.563253 -2.871232
2007-04-13 07:52:15 51°16.216 2°53.474 10.6083 3.475539 29.572436 -2.871232
2007-04-13 07:52:20 51°16.233 2°53.462 10.6009 3.475746 29.587023 -2.871232
2007-04-13 07:52:25 51°16.25 2°53.449 10.5955 3.475643 29.599433 -2.871232
2007-04-13 07:52:30 51°16.266 2°53.437 10.5791 3.475746 29.613066 -2.871232
2007-04-13 07:52:35 51°16.283 2°53.425 10.571 3.475643 29.6255 -2.871232
2007-04-13 07:52:40 51°16.3 2°53.412 10.5641 3.475643 29.6255 -2.871232
2007-04-13 07:52:45 51°16.316 2°53.399 10.5562 3.475747 29.64065 -2.871232
2007-04-13 07:52:50 51°16.333 2°53.387 10.5502 3.475643 29.653855 -2.871232
2007-04-13 07:52:55 51°16.349 2°53.374 10.5451 3.475022 29.659181 -2.871232
2007-04-13 07:53:00 51°16.365 2°53.362 10.5381 3.474401 29.663764 -2.871232
2007-04-13 07:53:05 51°16.382 2°53.349 10.5383 3.47378 29.66835 -2.871232
2007-04-13 07:53:10 51°16.398 2°53.336 10.5413 3.47378 29.66835 -2.871232
2007-04-13 07:53:15 51°16.414 2°53.322 10.5385 3.473366 29.673406 -2.871232
2007-04-13 07:53:20 51°16.43 2°53.309 10.5446 3.472745 29.676502 -2.871232
2007-04-13 07:53:25 51°16.447 2°53.295 10.545 3.472434 29.681047 -2.871232
2007-04-13 07:53:30 51°16.463 2°53.282 10.5361 3.471813 29.679651 -2.871232
2007-04-13 07:53:35 51°16.479 2°53.268 10.5305 3.471606 29.683682 -2.871232
2007-04-13 07:53:40 51°16.494 2°53.255 10.5355 3.471606 29.683682 -2.871232
2007-04-13 07:53:45 51°16.511 2°53.241 10.5348 3.471295 29.683734 -2.871232
2007-04-13 07:53:50 51°16.527 2°53.228 10.5351 3.471088 29.681769 -2.871232
2007-04-13 07:53:55 51°16.543 2°53.214 10.5346 3.471088 29.681769 -2.871232
2007-04-13 07:54:00 51°16.559 2°53.2 10.5434 3.471088 29.684768 -2.871232
2007-04-13 07:54:05 51°16.575 2°53.187 10.5395 3.471088 29.688517 -2.871232
2007-04-13 07:54:10 51°16.591 2°53.173 10.5374 3.471088 29.688517 -2.871232
2007-04-13 07:54:15 51°16.608 2°53.159 10.536 3.470984 29.688284 -2.871232
2007-04-13 07:54:20 51°16.624 2°53.145 10.5404 3.470881 29.687302 -2.871232
2007-04-13 07:54:25 51°16.64 2°53.132 10.5458 3.470881 29.687302 -2.871232
2007-04-13 07:54:30 51°16.656 2°53.118 10.5492 3.470881 29.685802 -2.871232
2007-04-13 07:54:35 51°16.672 2°53.104 10.5507 3.470881 29.685802 -2.871232
2007-04-13 07:54:40 51°16.688 2°53.09 10.5445 3.470881 29.685802 -2.871232
2007-04-13 07:54:45 51°16.704 2°53.075 10.5506 3.470984 29.687534 -2.871232
2007-04-13 07:54:50 51°16.72 2°53.061 10.5445 3.471088 29.688517 -2.871232
2007-04-13 07:54:55 51°16.736 2°53.048 10.5446 3.471192 29.688749 -2.871232
2007-04-13 07:55:00 51°16.753 2°53.034 10.5505 3.471088 29.685517 -2.871232
2007-04-13 07:55:05 51°16.769 2°53.02 10.5416 3.471295 29.685233 -2.871232
2007-04-13 07:55:10 51°16.785 2°53.007 10.5468 3.471295 29.685233 -2.871232
2007-04-13 07:55:15 51°16.802 2°52.993 10.5454 3.471502 29.687197 -2.871232
2007-04-13 07:55:20 51°16.817 2°52.979 10.5417 3.471709 29.687662 -2.871232
2007-04-13 07:55:25 51°16.833 2°52.965 10.5373 3.471916 29.691126 -2.871232
2007-04-13 07:55:30 51°16.849 2°52.951 10.5301 3.47202 29.692108 -2.871232
2007-04-13 07:55:35 51°16.865 2°52.937 10.5267 3.472227 29.694823 -2.871232
2007-04-13 07:55:40 51°16.88 2°52.924 10.5218 3.472227 29.694823 -2.871232
2007-04-13 07:55:45 51°16.896 2°52.91 10.534 3.472538 29.69852 -2.871232
2007-04-13 07:55:50 51°16.913 2°52.897 10.5222 3.472641 29.700252 -2.871232
2007-04-13 07:55:55 51°16.928 2°52.883 10.5201 3.472848 29.704467 -2.871232
2007-04-13 07:56:00 51°16.944 2°52.869 10.5227 3.472952 29.707701 -2.871232
2007-04-13 07:56:05 51°16.961 2°52.855 10.5199 3.472849 29.711221 -2.871232
2007-04-13 07:56:10 51°16.977 2°52.841 10.5137 3.472849 29.711221 -2.871232
2007-04-13 07:56:15 51°16.994 2°52.827 10.5067 3.473056 29.71619 -2.871232
2007-04-13 07:56:20 51°17.01 2°52.813 10.5123 3.473056 29.717691 -2.871232
2007-04-13 07:56:25 51°17.025 2°52.798 10.5081 3.473159 29.720927 -2.871232
2007-04-13 07:56:30 51°17.042 2°52.784 10.5028 3.473159 29.722429 -2.871232
2007-04-13 07:56:35 51°17.058 2°52.771 10.5019 3.473159 29.723932 -2.871232
2007-04-13 07:56:40 51°17.074 2°52.757 10.4906 3.473159 29.723932 -2.871232
2007-04-13 07:56:45 51°17.091 2°52.742 10.4911 3.47347 29.729886 -2.871232
2007-04-13 07:56:50 51°17.106 2°52.727 10.4837 3.47347 29.732892 -2.871232
2007-04-13 07:56:55 51°17.123 2°52.713 10.4821 3.473367 29.734164 -2.871232
2007-04-13 07:57:00 51°17.139 2°52.7 10.4898 3.473367 29.737171 -2.871232
2007-04-13 07:57:05 51°17.156 2°52.686 10.4781 3.47316 29.738964 -2.871232
2007-04-13 07:57:10 51°17.172 2°52.673 10.4747 3.47316 29.738964 -2.871232
2007-04-13 07:57:15 51°17.188 2°52.661 10.4833 3.473056 29.742493 -2.871232
2007-04-13 07:57:20 51°17.205 2°52.647 10.4885 3.472953 29.744518 -2.871232
2007-04-13 07:57:25 51°17.223 2°52.636 10.4853 3.472746 29.746312 -2.871232
2007-04-13 07:57:30 51°17.241 2°52.626 10.4851 3.472849 29.749554 -2.871232
2007-04-13 07:57:35 51°17.258 2°52.617 10.4795 3.472849 29.751812 -2.871232
2007-04-13 07:57:40 51°17.276 2°52.608 10.4867 3.472849 29.751812 -2.871232
2007-04-13 07:57:45 51°17.294 2°52.602 10.4935 3.47316 29.757023 -2.871232
2007-04-13 07:57:50 51°17.313 2°52.596 10.4881 3.47316 29.757023 -2.871232
2007-04-13 07:57:55 51°17.331 2°52.591 10.4852 3.47316 29.754764 -2.871232
2007-04-13 07:58:00 51°17.35 2°52.586 10.4893 3.473574 29.759453 -2.871232
2007-04-13 07:58:05 51°17.369 2°52.582 10.4834 3.473574 29.760206 -2.871232
2007-04-13 07:58:10 51°17.387 2°52.579 10.4819 3.473574 29.760206 -2.871232
2007-04-13 07:58:15 51°17.406 2°52.576 10.4805 3.473678 29.760437 -2.871232
2007-04-13 07:58:20 51°17.425 2°52.574 10.4771 3.473781 29.75841 -2.871232
2007-04-13 07:58:25 51°17.444 2°52.572 10.4738 3.473885 29.760899 -2.871232
2007-04-13 07:58:30 51°17.463 2°52.571 10.4818 3.473885 29.761652 -2.871232
2007-04-13 07:58:35 51°17.481 2°52.569 10.4754 3.473781 29.761421 -2.871232
2007-04-13 07:58:40 51°17.5 2°52.568 10.4678 3.473781 29.761421 -2.871232
2007-04-13 07:58:45 51°17.52 2°52.566 10.4713 3.473781 29.762927 -2.871232
2007-04-13 07:58:50 51°17.538 2°52.565 10.464 3.473678 29.764203 -2.871232
2007-04-13 07:58:55 51°17.557 2°52.563 10.4613 3.473574 29.765478 -2.871232
2007-04-13 07:59:00 51°17.576 2°52.561 10.4614 3.473471 29.766 -2.871232
2007-04-13 07:59:05 51°17.595 2°52.559 10.4551 3.473471 29.766754 -2.871232
2007-04-13 07:59:10 51°17.614 2°52.557 10.4527 3.473471 29.766754 -2.871232
2007-04-13 07:59:15 51°17.634 2°52.555 10.4516 3.473781 29.773474 -2.871232
2007-04-13 07:59:20 51°17.652 2°52.553 10.452 3.473678 29.774751 -2.871232
2007-04-13 07:59:25 51°17.671 2°52.55 10.4508 3.473885 29.779736 -2.871232
2007-04-13 07:59:30 51°17.69 2°52.548 10.4527 3.473678 29.780028 -2.871232
2007-04-13 07:59:36 51°17.713 2°52.546 10.4573 3.473781 29.784029 -2.871232
2007-04-13 07:59:41 51°17.732 2°52.544 10.4492 3.473781 29.784029 -2.871232
2007-04-13 07:59:46 51°17.751 2°52.542 10.4438 3.473989 29.789016 -2.871232
2007-04-13 07:59:51 51°17.77 2°52.539 10.4401 3.474092 29.792265 -2.871232
2007-04-13 07:59:56 51°17.789 2°52.537 10.437 3.473989 29.792789 -2.871232
2007-04-13 08:00:01 51°17.808 2°52.535 10.42 3.474092 29.794528 -2.871232
2007-04-13 08:00:06 51°17.826 2°52.533 10.4025 3.474092 29.793774 -2.871232
2007-04-13 08:00:11 51°17.845 2°52.531 10.395 3.474092 29.793774 -2.871232
2007-04-13 08:00:16 51°17.864 2°52.53 10.3757 3.474403 29.797484 -2.871232
2007-04-13 08:00:21 51°17.883 2°52.528 10.3546 3.47461 29.802473 -2.871232
2007-04-13 08:00:26 51°17.902 2°52.526 10.3498 3.475024 29.81019 -2.871232
2007-04-13 08:00:31 51°17.922 2°52.527 10.3362 3.475542 29.821161 -2.871232
2007-04-13 08:00:36 51°17.94 2°52.528 10.3232 3.476371 29.839633 -2.871232
2007-04-13 08:00:41 51°17.96 2°52.532 10.3043 3.476371 29.839633 -2.871232
2007-04-13 08:00:46 51°17.979 2°52.535 10.3002 3.476889 29.856673 -2.871232
2007-04-13 08:00:51 51°17.998 2°52.539 10.2843 3.477717 29.878962 -2.871232
2007-04-13 08:00:56 51°18.017 2°52.543 10.2657 3.478235 29.89907 -2.871232
2007-04-13 08:01:01 51°18.036 2°52.548 10.2594 3.478443 29.913197 -2.871232
2007-04-13 08:01:06 51°18.054 2°52.552 10.2637 3.47865 29.928095 -2.871232
2007-04-13 08:01:11 51°18.073 2°52.557 10.2452 3.47865 29.928095 -2.871232
2007-04-13 08:01:16 51°18.092 2°52.562 10.2444 3.478857 29.943768 -2.871232
2007-04-13 08:01:21 51°18.111 2°52.567 10.239 3.478961 29.955419 -2.871232
2007-04-13 08:01:26 51°18.13 2°52.571 10.2373 3.479065 29.970891 -2.871232
2007-04-13 08:01:31 51°18.149 2°52.576 10.2308 3.478961 29.982108 -2.871232
2007-04-13 08:01:36 51°18.168 2°52.58 10.2313 3.478754 29.988526 -2.871232
2007-04-13 08:01:41 51°18.187 2°52.584 10.2231 3.478754 29.988526 -2.871232
2007-04-13 08:01:46 51°18.206 2°52.589 10.2238 3.478547 29.997239 -2.871232
2007-04-13 08:01:51 51°18.225 2°52.594 10.2213 3.47834 30.002137 -2.871232
2007-04-13 08:01:56 51°18.243 2°52.599 10.2243 3.478133 30.006272 -2.871232
2007-04-13 08:02:01 51°18.262 2°52.608 10.2292 3.477926 30.008878 -2.871232
2007-04-13 08:02:06 51°18.28 2°52.618 10.2286 3.477926 30.012703 -2.871232
2007-04-13 08:02:11 51°18.297 2°52.63 10.238 3.477926 30.012703 -2.871232
2007-04-13 08:02:16 51°18.315 2°52.643 10.2348 3.477926 30.017295 -2.871232
2007-04-13 08:02:21 51°18.331 2°52.659 10.2356 3.477927 30.019591 -2.871232
2007-04-13 08:02:26 51°18.347 2°52.676 10.2444 3.477823 30.020131 -2.871232
2007-04-13 08:02:31 51°18.363 2°52.694 10.2552 3.477823 30.0186 -2.871232
2007-04-13 08:02:36 51°18.378 2°52.713 10.263 3.477823 30.017069 -2.871232
2007-04-13 08:02:41 51°18.393 2°52.731 10.2661 3.477823 30.017069 -2.871232
2007-04-13 08:02:46 51°18.407 2°52.751 10.2702 3.477719 30.013781 -2.871232
2007-04-13 08:02:51 51°18.422 2°52.771 10.2749 3.477616 30.011259 -2.871232
2007-04-13 08:02:56 51°18.435 2°52.794 10.2832 3.477409 30.007747 -2.871232
2007-04-13 08:03:01 51°18.449 2°52.816 10.2929 3.477098 29.998655 -2.871232
2007-04-13 08:03:06 51°18.462 2°52.839 10.2847 3.476684 29.988575 -2.871232
2007-04-13 08:03:11 51°18.475 2°52.863 10.2889 3.476684 29.988575 -2.871232
2007-04-13 08:03:16 51°18.487 2°52.887 10.2951 3.476373 29.980255 -2.871232
2007-04-13 08:03:21 51°18.5 2°52.91 10.3047 3.476166 29.973692 -2.871232
2007-04-13 08:03:26 51°18.512 2°52.933 10.3028 3.475751 29.963624 -2.871232
2007-04-13 08:03:31 51°18.525 2°52.956 10.3054 3.475544 29.956302 -2.871232
2007-04-13 08:03:36 51°18.538 2°52.979 10.3068 3.475337 29.950509 -2.871232
2007-04-13 08:03:41 51°18.552 2°53.002 10.3133 3.475337 29.950509 -2.871232
2007-04-13 08:03:46 51°18.565 2°53.024 10.3182 3.47513 29.946242 -2.871232
2007-04-13 08:03:51 51°18.578 2°53.046 10.3197 3.474716 29.938472 -2.871232
2007-04-13 08:03:56 51°18.592 2°53.069 10.3256 3.474612 29.933672 -2.871232
2007-04-13 08:04:01 51°18.606 2°53.091 10.3335 3.474508 29.929636 -2.871232
2007-04-13 08:04:06 51°18.619 2°53.113 10.3342 3.474508 29.927351 -2.871232
2007-04-13 08:04:11 51°18.633 2°53.135 10.3368 3.474508 29.927351 -2.871232
2007-04-13 08:04:16 51°18.647 2°53.157 10.3369 3.474405 29.923316 -2.871232
2007-04-13 08:04:21 51°18.66 2°53.178 10.3395 3.474405 29.91951 -2.871232
2007-04-13 08:04:26 51°18.674 2°53.2 10.3432 3.474612 29.917683 -2.871232
2007-04-13 08:04:31 51°18.688 2°53.222 10.3462 3.474819 29.915096 -2.871232
2007-04-13 08:04:36 51°18.702 2°53.244 10.3416 3.474922 29.91152 -2.871232
2007-04-13 08:04:41 51°18.716 2°53.266 10.3477 3.474922 29.91152 -2.871232
2007-04-13 08:04:46 51°18.73 2°53.288 10.3503 3.474922 29.908478 -2.871232
2007-04-13 08:04:51 51°18.743 2°53.31 10.3465 3.475026 29.907186 -2.871232
2007-04-13 08:04:56 51°18.757 2°53.331 10.347 3.475233 29.906882 -2.871232
2007-04-13 08:05:01 51°18.771 2°53.353 10.346 3.47544 29.906579 -2.871232
2007-04-13 08:05:06 51°18.785 2°53.375 10.3476 3.47544 29.905818 -2.871232
2007-04-13 08:05:11 51°18.799 2°53.397 10.3455 3.47544 29.905818 -2.871232
2007-04-13 08:05:16 51°18.813 2°53.418 10.3494 3.475647 29.905515 -2.871232
2007-04-13 08:05:21 51°18.827 2°53.44 10.3475 3.475751 29.904983 -2.871232
2007-04-13 08:05:26 51°18.841 2°53.462 10.3488 3.47575 29.904223 -2.871232
2007-04-13 08:05:31 51°18.855 2°53.484 10.3552 3.475854 29.904451 -2.871232
2007-04-13 08:05:36 51°18.869 2°53.506 10.353 3.47575 29.904223 -2.871232
2007-04-13 08:05:41 51°18.883 2°53.528 10.3537 3.47575 29.904223 -2.871232
2007-04-13 08:05:46 51°18.897 2°53.55 10.3541 3.47575 29.904223 -2.871232
2007-04-13 08:05:51 51°18.91 2°53.572 10.3547 3.47575 29.903463 -2.871232
2007-04-13 08:05:56 51°18.924 2°53.594 10.3546 3.47575 29.903463 -2.871232
2007-04-13 08:06:01 51°18.938 2°53.616 10.3517 3.475647 29.900195 -2.871232
2007-04-13 08:06:06 51°18.952 2°53.638 10.346 3.475647 29.899436 -2.871232
2007-04-13 08:06:11 51°18.966 2°53.66 10.3524 3.475647 29.899436 -2.871232
2007-04-13 08:06:16 51°18.979 2°53.682 10.3522 3.475647 29.898676 -2.871232
2007-04-13 08:06:21 51°18.993 2°53.704 10.3509 3.475647 29.897156 -2.871232
2007-04-13 08:06:26 51°19.007 2°53.726 10.3512 3.475647 29.897916 -2.871232
2007-04-13 08:06:31 51°19.021 2°53.748 10.3511 3.475647 29.897916 -2.871232
2007-04-13 08:06:36 51°19.035 2°53.77 10.3545 3.475647 29.900195 -2.871232
2007-04-13 08:06:41 51°19.049 2°53.792 10.3556 3.475647 29.900195 -2.871232
2007-04-13 08:06:46 51°19.062 2°53.813 10.3577 3.475647 29.900195 -2.871232
2007-04-13 08:06:51 51°19.076 2°53.835 10.3553 3.475647 29.899436 -2.871232
2007-04-13 08:06:56 51°19.09 2°53.857 10.3621 3.475647 29.899436 -2.871232
2007-04-13 08:07:01 51°19.104 2°53.879 10.3643 3.475647 29.899436 -2.871232
2007-04-13 08:07:06 51°19.118 2°53.901 10.3664 3.475543 29.896928 -2.871232
2007-04-13 08:07:11 51°19.131 2°53.924 10.3697 3.475543 29.896928 -2.871232
2007-04-13 08:07:16 51°19.144 2°53.946 10.3762 3.47544 29.89518 -2.871232
2007-04-13 08:07:21 51°19.158 2°53.969 10.3724 3.475233 29.892444 -2.871232
2007-04-13 08:07:26 51°19.171 2°53.991 10.3725 3.474922 29.888721 -2.871232
2007-04-13 08:07:31 51°19.185 2°54.014 10.3732 3.474508 29.881732 -2.871232
2007-04-13 08:07:36 51°19.198 2°54.036 10.3761 3.474197 29.876491 -2.871232
2007-04-13 08:07:41 51°19.212 2°54.059 10.376 3.474197 29.876491 -2.871232
2007-04-13 08:07:46 51°19.225 2°54.081 10.3734 3.473886 29.870493 -2.871232
2007-04-13 08:07:51 51°19.239 2°54.104 10.3752 3.473576 29.864496 -2.871232
2007-04-13 08:07:56 51°19.252 2°54.126 10.3747 3.473161 29.859787 -2.871232
2007-04-13 08:08:01 51°19.265 2°54.149 10.3763 3.472851 29.856066 -2.871232
2007-04-13 08:08:06 51°19.279 2°54.171 10.3741 3.47254 29.851587 -2.871232
2007-04-13 08:08:11 51°19.292 2°54.194 10.3714 3.47254 29.851587 -2.871232
2007-04-13 08:08:16 51°19.306 2°54.216 10.3696 3.472022 29.845892 -2.871232
2007-04-13 08:08:21 51°19.319 2°54.239 10.3692 3.471711 29.84293 -2.871232
2007-04-13 08:08:26 51°19.332 2°54.262 10.368 3.471297 29.838981 -2.871232
2007-04-13 08:08:31 51°19.346 2°54.285 10.366 3.470883 29.835031 -2.871232
2007-04-13 08:08:36 51°19.359 2°54.307 10.3659 3.470779 29.834044 -2.871232
2007-04-13 08:08:41 51°19.373 2°54.33 10.3617 3.470779 29.834044 -2.871232
2007-04-13 08:08:46 51°19.386 2°54.352 10.3567 3.470572 29.833584 -2.871232
2007-04-13 08:08:51 51°19.399 2°54.374 10.3546 3.470158 29.830392 -2.871232
2007-04-13 08:08:56 51°19.413 2°54.397 10.3508 3.470055 29.83092 -2.871232
2007-04-13 08:09:01 51°19.426 2°54.419 10.3484 3.468087 29.812917 -2.871232
2007-04-13 08:09:06 51°19.44 2°54.441 10.3449 3.469744 29.830231 -2.871232
2007-04-13 08:09:11 51°19.454 2°54.464 10.3408 3.469744 29.830231 -2.871232
2007-04-13 08:09:16 51°19.467 2°54.486 10.3358 3.46964 29.831516 -2.871232
2007-04-13 08:09:21 51°19.481 2°54.509 10.331 3.469641 29.834547 -2.871232
2007-04-13 08:09:26 51°19.494 2°54.531 10.3245 3.469744 29.837809 -2.871232
2007-04-13 08:09:31 51°19.508 2°54.554 10.3158 3.469951 29.842817 -2.871232
2007-04-13 08:09:36 51°19.521 2°54.576 10.3084 3.470055 29.846838 -2.871232
2007-04-13 08:09:41 51°19.535 2°54.599 10.298 3.470055 29.846838 -2.871232
2007-04-13 08:09:46 51°19.548 2°54.621 10.2912 3.470366 29.852837 -2.871232
2007-04-13 08:09:51 51°19.562 2°54.644 10.2874 3.470676 29.861872 -2.871232
2007-04-13 08:09:56 51°19.576 2°54.666 10.2836 3.470987 29.868633 -2.871232
2007-04-13 08:10:01 51°19.59 2°54.688 10.2711 3.471401 29.878664 -2.871232
2007-04-13 08:10:06 51°19.603 2°54.711 10.2716 3.471712 29.88771 -2.871232
2007-04-13 08:10:11 51°19.617 2°54.733 10.2641 3.471712 29.88771 -2.871232
2007-04-13 08:10:16 51°19.63 2°54.756 10.2596 3.471712 29.896834 -2.871232
2007-04-13 08:10:21 51°19.644 2°54.778 10.2502 3.471712 29.904443 -2.871232
2007-04-13 08:10:26 51°19.658 2°54.8 10.2503 3.471505 29.907791 -2.871232
2007-04-13 08:10:31 51°19.671 2°54.823 10.2504 3.471402 29.912131 -2.871232
2007-04-13 08:10:36 51°19.684 2°54.846 10.2469 3.471195 29.917007 -2.871232
2007-04-13 08:10:41 51°19.698 2°54.869 10.2429 3.471195 29.917007 -2.871232
2007-04-13 08:10:46 51°19.711 2°54.893 10.2406 3.471091 29.922112 -2.871232
2007-04-13 08:10:51 51°19.723 2°54.916 10.2433 3.470988 29.92722 -2.871232
2007-04-13 08:10:56 51°19.736 2°54.94 10.2485 3.470884 29.930042 -2.871232
2007-04-13 08:11:01 51°19.749 2°54.963 10.2449 3.470988 29.934846 -2.871232
2007-04-13 08:11:06 51°19.762 2°54.987 10.2515 3.471299 29.940107 -2.871232
2007-04-13 08:11:11 51°19.775 2°55.011 10.2557 3.471299 29.940107 -2.871232
2007-04-13 08:11:16 51°19.787 2°55.034 10.259 3.471506 29.945141 -2.871232
2007-04-13 08:11:21 51°19.8 2°55.057 10.2585 3.471713 29.948649 -2.871232
2007-04-13 08:11:26 51°19.813 2°55.081 10.2653 3.471817 29.950404 -2.871232
2007-04-13 08:11:31 51°19.826 2°55.104 10.2657 3.471299 29.944686 -2.871232
2007-04-13 08:11:36 51°19.839 2°55.128 10.2728 3.472024 29.950859 -2.871232
2007-04-13 08:11:41 51°19.852 2°55.151 10.2754 3.472024 29.950859 -2.871232
2007-04-13 08:11:46 51°19.865 2°55.175 10.2748 3.472127 29.94956 -2.871232
2007-04-13 08:11:51 51°19.878 2°55.198 10.275 3.472748 29.953978 -2.871232
2007-04-13 08:11:56 51°19.89 2°55.221 10.2788 3.472541 29.948943 -2.871232
2007-04-13 08:12:01 51°19.903 2°55.245 10.2785 3.473473 29.954807 -2.871232
2007-04-13 08:12:06 51°19.916 2°55.268 10.2765 3.473887 29.954953 -2.871232
2007-04-13 08:12:11 51°19.929 2°55.292 10.2746 3.473887 29.954953 -2.871232
2007-04-13 08:12:16 51°19.942 2°55.315 10.2789 3.474405 29.956853 -2.871232
2007-04-13 08:12:21 51°19.955 2°55.339 10.2777 3.474819 29.958526 -2.871232
2007-04-13 08:12:26 51°19.968 2°55.362 10.2772 3.47513 29.960734 -2.871232
2007-04-13 08:12:31 51°19.98 2°55.386 10.2776 3.475337 29.961188 -2.871232
2007-04-13 08:12:36 51°19.993 2°55.409 10.28 3.475544 29.961643 -2.871232
2007-04-13 08:12:41 51°20.006 2°55.433 10.2776 3.475544 29.961643 -2.871232
2007-04-13 08:12:46 51°20.019 2°55.456 10.2819 3.475855 29.965377 -2.871232
2007-04-13 08:12:51 51°20.032 2°55.48 10.2806 3.475958 29.965604 -2.871232
2007-04-13 08:12:56 51°20.045 2°55.503 10.2822 3.476062 29.966594 -2.871232
2007-04-13 08:13:01 51°20.058 2°55.527 10.2809 3.476166 29.967585 -2.871232
2007-04-13 08:13:06 51°20.072 2°55.55 10.285 3.476062 29.965831 -2.871232
2007-04-13 08:13:11 51°20.085 2°55.574 10.2866 3.476062 29.965831 -2.871232
2007-04-13 08:13:16 51°20.098 2°55.597 10.2809 3.476062 29.965068 -2.871232
2007-04-13 08:13:21 51°20.11 2°55.621 10.2817 3.476166 29.965295 -2.871232
2007-04-13 08:13:26 51°20.123 2°55.645 10.2869 3.476269 29.966286 -2.871232
2007-04-13 08:13:31 51°20.135 2°55.669 10.285 3.476373 29.966513 -2.871232
2007-04-13 08:13:36 51°20.148 2°55.692 10.2842 3.476683 29.96872 -2.871232
2007-04-13 08:13:41 51°20.161 2°55.716 10.2864 3.476683 29.96872 -2.871232
2007-04-13 08:13:46 51°20.175 2°55.739 10.2885 3.47689 29.969175 -2.871232
2007-04-13 08:13:51 51°20.188 2°55.762 10.2866 3.476994 29.970165 -2.871232
2007-04-13 08:13:56 51°20.201 2°55.785 10.2887 3.477201 29.972145 -2.871232
2007-04-13 08:14:01 51°20.214 2°55.809 10.2912 3.477408 29.974126 -2.871232
2007-04-13 08:14:06 51°20.226 2°55.832 10.2918 3.477615 29.976106 -2.871232
2007-04-13 08:14:11 51°20.239 2°55.856 10.2863 3.477615 29.976106 -2.871232
2007-04-13 08:14:16 51°20.252 2°55.879 10.2866 3.477822 29.977323 -2.871232
2007-04-13 08:14:21 51°20.266 2°55.902 10.2896 3.478029 29.977777 -2.871232
2007-04-13 08:14:26 51°20.279 2°55.926 10.2855 3.478237 29.979757 -2.871232
2007-04-13 08:14:31 51°20.292 2°55.95 10.2873 3.478547 29.981201 -2.871232
2007-04-13 08:14:36 51°20.305 2°55.973 10.2895 3.478754 29.983181 -2.871232
2007-04-13 08:14:41 51°20.317 2°55.997 10.2905 3.478754 29.983181 -2.871232
2007-04-13 08:14:46 51°20.33 2°56.02 10.2866 3.478754 29.983945 -2.871232
2007-04-13 08:14:51 51°20.344 2°56.043 10.2895 3.478858 29.984935 -2.871232
2007-04-13 08:14:56 51°20.357 2°56.067 10.2933 3.478961 29.985925 -2.871232
2007-04-13 08:15:01 51°20.37 2°56.09 10.2934 3.479065 29.986915 -2.871232
2007-04-13 08:15:06 51°20.384 2°56.113 10.2933 3.478961 29.985925 -2.871232
2007-04-13 08:15:11 51°20.397 2°56.137 10.2931 3.478961 29.985925 -2.871232
2007-04-13 08:15:16 51°20.41 2°56.161 10.2909 3.478858 29.984171 -2.871232
2007-04-13 08:15:21 51°20.422 2°56.185 10.2961 3.478651 29.982191 -2.871232
2007-04-13 08:15:26 51°20.435 2°56.209 10.2933 3.478444 29.978684 -2.871232
2007-04-13 08:15:31 51°20.447 2°56.232 10.2931 3.478237 29.975941 -2.871232
2007-04-13 08:15:36 51°20.461 2°56.256 10.2906 3.478133 29.974188 -2.871232
2007-04-13 08:15:41 51°20.475 2°56.279 10.289 3.478133 29.974188 -2.871232
2007-04-13 08:15:46 51°20.488 2°56.302 10.291 3.477926 29.972208 -2.871232
2007-04-13 08:15:51 51°20.501 2°56.325 10.2881 3.477926 29.972208 -2.871232
2007-04-13 08:15:56 51°20.514 2°56.349 10.2841 3.477926 29.972208 -2.871232
2007-04-13 08:16:01 51°20.527 2°56.373 10.2794 3.478029 29.973198 -2.871232
2007-04-13 08:16:06 51°20.541 2°56.396 10.2697 3.478237 29.975941 -2.871232
2007-04-13 08:16:11 51°20.554 2°56.42 10.2685 3.478237 29.975941 -2.871232
2007-04-13 08:16:16 51°20.566 2°56.443 10.2642 3.478444 29.977921 -2.871232
2007-04-13 08:16:21 51°20.579 2°56.466 10.2657 3.478651 29.980665 -2.871232
2007-04-13 08:16:26 51°20.592 2°56.49 10.2596 3.479065 29.986152 -2.871232
2007-04-13 08:16:31 51°20.606 2°56.513 10.2603 3.479376 29.992177 -2.871232
2007-04-13 08:16:36 51°20.619 2°56.537 10.2561 3.479686 29.999731 -2.871232
2007-04-13 08:16:41 51°20.631 2°56.561 10.256 3.479686 29.999731 -2.871232
2007-04-13 08:16:46 51°20.644 2°56.584 10.2531 3.479894 30.005532 -2.871232
2007-04-13 08:16:51 51°20.657 2°56.608 10.2516 3.480204 30.011562 -2.871232
2007-04-13 08:16:56 51°20.671 2°56.631 10.2543 3.480412 30.016602 -2.871232
2007-04-13 08:17:01 51°20.684 2°56.655 10.2578 3.480826 30.023624 -2.871232
2007-04-13 08:17:06 51°20.696 2°56.679 10.2575 3.481033 30.027901 -2.871232
2007-04-13 08:17:11 51°20.709 2°56.703 10.2558 3.481033 30.027901 -2.871232
2007-04-13 08:17:16 51°20.722 2°56.727 10.2536 3.481344 30.03317 -2.871232
2007-04-13 08:17:21 51°20.734 2°56.752 10.2556 3.481965 30.040648 -2.871232
2007-04-13 08:17:26 51°20.747 2°56.776 10.258 3.482897 30.050335 -2.871232
2007-04-13 08:17:31 51°20.759 2°56.801 10.2567 3.483933 30.061014 -2.871232
2007-04-13 08:17:36 51°20.771 2°56.825 10.2614 3.485175 30.071377 -2.871232
2007-04-13 08:17:41 51°20.783 2°56.85 10.2579 3.485175 30.071377 -2.871232
2007-04-13 08:17:46 51°20.795 2°56.875 10.2597 3.486625 30.086023 -2.871232
2007-04-13 08:17:51 51°20.806 2°56.9 10.2603 3.487868 30.09792 -2.871232
2007-04-13 08:17:56 51°20.818 2°56.925 10.2573 3.489007 30.108059 -2.871232
2007-04-13 08:18:01 51°20.829 2°56.95 10.2586 3.49025 30.11919 -2.871232
2007-04-13 08:18:06 51°20.841 2°56.975 10.2608 3.491285 30.128338 -2.871232
2007-04-13 08:18:11 51°20.853 2°57 10.2621 3.491285 30.128338 -2.871232
2007-04-13 08:18:16 51°20.865 2°57.025 10.2653 3.492321 30.138254 -2.871232
2007-04-13 08:18:21 51°20.876 2°57.051 10.2677 3.493357 30.14817 -2.871232
2007-04-13 08:18:26 51°20.888 2°57.076 10.265 3.494185 30.156103 -2.871232
2007-04-13 08:18:31 51°20.9 2°57.101 10.2693 3.495014 30.164037 -2.871232
2007-04-13 08:18:36 51°20.912 2°57.126 10.2689 3.495635 30.169219 -2.871232
2007-04-13 08:18:41 51°20.923 2°57.151 10.269 3.495635 30.169219 -2.871232
2007-04-13 08:18:46 51°20.935 2°57.176 10.2682 3.496256 30.1744 -2.871232
2007-04-13 08:18:51 51°20.947 2°57.201 10.2716 3.496878 30.178812 -2.871232
2007-04-13 08:18:56 51°20.959 2°57.226 10.2682 3.497499 30.183225 -2.871232
2007-04-13 08:19:01 51°20.971 2°57.251 10.2704 3.498224 30.188628 -2.871232
2007-04-13 08:19:06 51°20.982 2°57.276 10.2725 3.498949 30.1948 -2.871232
2007-04-13 08:19:11 51°20.994 2°57.301 10.2682 3.498949 30.1948 -2.871232
2007-04-13 08:19:16 51°21.006 2°57.326 10.27 3.49957 30.199981 -2.871232
2007-04-13 08:19:21 51°21.018 2°57.351 10.2727 3.499984 30.203178 -2.871232
2007-04-13 08:19:26 51°21.029 2°57.376 10.2702 3.500399 30.207145 -2.871232
2007-04-13 08:19:31 51°21.041 2°57.401 10.2716 3.500917 30.212104 -2.871232
2007-04-13 08:19:36 51°21.053 2°57.426 10.2666 3.501124 30.213317 -2.871232
2007-04-13 08:19:41 51°21.065 2°57.451 10.2664 3.501124 30.213317 -2.871232
2007-04-13 08:19:46 51°21.077 2°57.476 10.2665 3.501331 30.215301 -2.871232
2007-04-13 08:19:51 51°21.088 2°57.501 10.2668 3.501538 30.218054 -2.871232
2007-04-13 08:19:56 51°21.101 2°57.526 10.2667 3.501538 30.217284 -2.871232
2007-04-13 08:20:01 51°21.112 2°57.551 10.2633 3.501745 30.218498 -2.871232
2007-04-13 08:20:06 51°21.124 2°57.576 10.264 3.501849 30.221029 -2.871232
2007-04-13 08:20:11 51°21.136 2°57.601 10.2621 3.501849 30.221029 -2.871232
2007-04-13 08:20:16 51°21.148 2°57.625 10.2615 3.501849 30.221799 -2.871232
2007-04-13 08:20:21 51°21.16 2°57.651 10.2617 3.502056 30.224553 -2.871232
2007-04-13 08:20:26 51°21.172 2°57.675 10.2609 3.502159 30.226315 -2.871232
2007-04-13 08:20:31 51°21.184 2°57.7 10.256 3.502263 30.227307 -2.871232
2007-04-13 08:20:36 51°21.196 2°57.724 10.2556 3.50247 30.230831 -2.871232
2007-04-13 08:20:41 51°21.209 2°57.748 10.2532 3.50247 30.230831 -2.871232
2007-04-13 08:20:46 51°21.221 2°57.773 10.2549 3.502574 30.232593 -2.871232
2007-04-13 08:20:51 51°21.234 2°57.797 10.2532 3.502781 30.235347 -2.871232
2007-04-13 08:20:56 51°21.246 2°57.821 10.2571 3.503091 30.239865 -2.871232
2007-04-13 08:21:01 51°21.258 2°57.845 10.2542 3.503195 30.241627 -2.871232
2007-04-13 08:21:06 51°21.271 2°57.869 10.2593 3.503299 30.244932 -2.871232
2007-04-13 08:21:11 51°21.284 2°57.893 10.2586 3.503299 30.244932 -2.871232
2007-04-13 08:21:16 51°21.296 2°57.918 10.2607 3.503402 30.246695 -2.871232
2007-04-13 08:21:21 51°21.308 2°57.942 10.2609 3.503506 30.248458 -2.871232
2007-04-13 08:21:26 51°21.321 2°57.966 10.2638 3.503609 30.24945 -2.871232
2007-04-13 08:21:31 51°21.333 2°57.99 10.2641 3.503713 30.250442 -2.871232
2007-04-13 08:21:36 51°21.345 2°58.014 10.2637 3.504024 30.252648 -2.871232
2007-04-13 08:21:41 51°21.358 2°58.038 10.264 3.504024 30.252648 -2.871232
2007-04-13 08:21:46 51°21.371 2°58.062 10.2648 3.504438 30.255846 -2.871232
2007-04-13 08:21:51 51°21.384 2°58.085 10.2656 3.504748 30.258051 -2.871232
2007-04-13 08:21:56 51°21.396 2°58.108 10.265 3.505266 30.26147 -2.871232
2007-04-13 08:22:01 51°21.41 2°58.131 10.2654 3.505577 30.263675 -2.871232
2007-04-13 08:22:06 51°21.423 2°58.155 10.2682 3.505784 30.264117 -2.871232
2007-04-13 08:22:11 51°21.436 2°58.178 10.2692 3.505784 30.264117 -2.871232
2007-04-13 08:22:16 51°21.449 2°58.201 10.2717 3.505991 30.26533 -2.871232
2007-04-13 08:22:21 51°21.462 2°58.224 10.2702 3.506095 30.266322 -2.871232
2007-04-13 08:22:26 51°21.475 2°58.247 10.269 3.506198 30.267314 -2.871232
2007-04-13 08:22:31 51°21.488 2°58.271 10.2722 3.506302 30.267535 -2.871232
2007-04-13 08:22:36 51°21.501 2°58.294 10.2715 3.506095 30.265551 -2.871232
2007-04-13 08:22:41 51°21.515 2°58.317 10.2722 3.506095 30.265551 -2.871232
2007-04-13 08:22:46 51°21.528 2°58.341 10.2739 3.506198 30.265 -2.871232
2007-04-13 08:22:51 51°21.541 2°58.364 10.2792 3.506095 30.262466 -2.871232
2007-04-13 08:22:56 51°21.554 2°58.387 10.2778 3.505991 30.261474 -2.871232
2007-04-13 08:23:01 51°21.567 2°58.411 10.2791 3.505784 30.258719 -2.871232
2007-04-13 08:23:06 51°21.58 2°58.434 10.2833 3.50568 30.256956 -2.871232
2007-04-13 08:23:11 51°21.593 2°58.458 10.2811 3.50568 30.256956 -2.871232
2007-04-13 08:23:16 51°21.607 2°58.481 10.2776 3.505577 30.255194 -2.871232
2007-04-13 08:23:21 51°21.62 2°58.504 10.2811 3.505577 30.253652 -2.871232
2007-04-13 08:23:26 51°21.633 2°58.528 10.2815 3.505473 30.250348 -2.871232
2007-04-13 08:23:31 51°21.646 2°58.551 10.2872 3.505473 30.248807 -2.871232
2007-04-13 08:23:36 51°21.659 2°58.574 10.2841 3.50537 30.246275 -2.871232
2007-04-13 08:23:41 51°21.672 2°58.597 10.2855 3.50537 30.246275 -2.871232
2007-04-13 08:23:46 51°21.685 2°58.621 10.2878 3.505473 30.246496 -2.871232
2007-04-13 08:23:51 51°21.699 2°58.644 10.2873 3.50537 30.245505 -2.871232
2007-04-13 08:23:56 51°21.711 2°58.667 10.2983 3.50537 30.243964 -2.871232
2007-04-13 08:24:01 51°21.725 2°58.69 10.3096 3.505577 30.242096 -2.871232
2007-04-13 08:24:06 51°21.739 2°58.713 10.304 3.505266 30.235272 -2.871232
2007-04-13 08:24:11 51°21.752 2°58.735 10.3116 3.505266 30.235272 -2.871232
2007-04-13 08:24:16 51°21.766 2°58.757 10.3124 3.504852 30.229768 -2.871232
2007-04-13 08:24:21 51°21.78 2°58.78 10.3235 3.504852 30.228228 -2.871232
2007-04-13 08:24:26 51°21.794 2°58.801 10.327 3.504334 30.220965 -2.871232
2007-04-13 08:24:31 51°21.808 2°58.824 10.3297 3.503816 30.210626 -2.871232
2007-04-13 08:24:36 51°21.822 2°58.846 10.3302 3.503609 30.203263 -2.871232
2007-04-13 08:24:41 51°21.836 2°58.869 10.3355 3.503609 30.203263 -2.871232
2007-04-13 08:24:46 51°21.849 2°58.891 10.3272 3.503919 30.203161 -2.871232
2007-04-13 08:24:51 51°21.863 2°58.913 10.3198 3.504126 30.2013 -2.871232
2007-04-13 08:24:56 51°21.877 2°58.935 10.3213 3.50423 30.196913 -2.871232
2007-04-13 08:25:01 51°21.891 2°58.957 10.3256 3.504023 30.189557 -2.871232
2007-04-13 08:25:06 51°21.905 2°58.979 10.3297 3.50423 30.189234 -2.871232
2007-04-13 08:25:11 51°21.92 2°59.001 10.3282 3.50423 30.189234 -2.871232
2007-04-13 08:25:16 51°21.934 2°59.022 10.3253 3.503815 30.183739 -2.871232
2007-04-13 08:25:21 51°21.948 2°59.043 10.3211 3.503608 30.181759 -2.871232
2007-04-13 08:25:26 51°21.962 2°59.065 10.3299 3.503608 30.184062 -2.871232
2007-04-13 08:25:31 51°21.977 2°59.086 10.3526 3.502987 30.178121 -2.871232
2007-04-13 08:25:36 51°21.991 2°59.108 10.3511 3.502676 30.172082 -2.871232
2007-04-13 08:25:41 51°22.005 2°59.13 10.3517 3.502676 30.172082 -2.871232
2007-04-13 08:25:46 51°22.019 2°59.151 10.3556 3.502676 30.172082 -2.871232
2007-04-13 08:25:51 51°22.033 2°59.174 10.3744 3.502883 30.175597 -2.871232
2007-04-13 08:25:56 51°22.047 2°59.195 10.3994 3.502987 30.175819 -2.871232
2007-04-13 08:26:01 51°22.061 2°59.217 10.3964 3.50309 30.170672 -2.871232
2007-04-13 08:26:06 51°22.076 2°59.238 10.4069 3.503815 30.172998 -2.871232
2007-04-13 08:26:11 51°22.09 2°59.26 10.4136 3.503815 30.172998 -2.871232
2007-04-13 08:26:16 51°22.104 2°59.281 10.4252 3.504851 30.179059 -2.871232
2007-04-13 08:26:21 51°22.118 2°59.303 10.4278 3.506197 30.185786 -2.871232
2007-04-13 08:26:26 51°22.133 2°59.325 10.4338 3.507336 30.187466 -2.871232
2007-04-13 08:26:31 51°22.147 2°59.346 10.4271 3.508268 30.183335 -2.871232
2007-04-13 08:26:36 51°22.161 2°59.368 10.4294 3.509097 30.182049 -2.871232
2007-04-13 08:26:41 51°22.175 2°59.39 10.4297 3.509097 30.182049 -2.871232
2007-04-13 08:26:46 51°22.189 2°59.411 10.4182 3.509614 30.178566 -2.871232
2007-04-13 08:26:51 51°22.203 2°59.433 10.42 3.510028 30.173332 -2.871232
2007-04-13 08:26:56 51°22.218 2°59.454 10.4182 3.510132 30.167433 -2.871232
2007-04-13 08:27:01 51°22.232 2°59.476 10.442 3.510235 30.163831 -2.871232
2007-04-13 08:27:06 51°22.246 2°59.498 10.4396 3.510235 30.160773 -2.871232
2007-04-13 08:27:11 51°22.261 2°59.519 10.4547 3.510235 30.160773 -2.871232
2007-04-13 08:27:16 51°22.275 2°59.541 10.4406 3.509925 30.156281 -2.871232
2007-04-13 08:27:21 51°22.289 2°59.562 10.4437 3.509717 30.155835 -2.871232
2007-04-13 08:27:26 51°22.303 2°59.584 10.4375 3.509407 30.152873 -2.871232
2007-04-13 08:27:31 51°22.317 2°59.606 10.4473 3.507232 30.13061 -2.871232
2007-04-13 08:27:36 51°22.331 2°59.627 10.4537 3.508682 30.141376 -2.871232
2007-04-13 08:27:41 51°22.346 2°59.649 10.468 3.508682 30.141376 -2.871232
2007-04-13 08:27:46 51°22.36 2°59.67 10.4678 3.508371 30.134595 -2.871232
2007-04-13 08:27:51 51°22.374 2°59.692 10.465 3.508267 30.130553 -2.871232
2007-04-13 08:27:56 51°22.389 2°59.713 10.4752 3.508164 30.128803 -2.871232
2007-04-13 08:28:01 51°22.403 2°59.735 10.4897 3.507957 30.125302 -2.871232
2007-04-13 08:28:06 51°22.417 2°59.756 10.4985 3.507957 30.11996 -2.871232
2007-04-13 08:28:11 51°22.431 2°59.778 10.5073 3.507957 30.11996 -2.871232
2007-04-13 08:28:16 51°22.446 2°59.8 10.5085 3.507956 30.112331 -2.871232
2007-04-13 08:28:21 51°22.459 2°59.822 10.5285 3.508267 30.109189 -2.871232
2007-04-13 08:28:26 51°22.474 2°59.844 10.534 3.508578 30.109861 -2.871232
2007-04-13 08:28:31 51°22.488 2°59.865 10.5379 3.509095 30.109455 -2.871232
2007-04-13 08:28:36 51°22.502 2°59.887 10.5571 3.510027 30.111469 -2.871232
2007-04-13 08:28:40 51°22.513 2°59.905 10.54 3.510027 30.111469 -2.871232
2007-04-13 08:28:46 51°22.53 2°59.931 10.5568 3.511063 30.112945 -2.871232
2007-04-13 08:28:51 51°22.544 2°59.952 10.5359 3.512099 30.112897 -2.871232
2007-04-13 08:28:56 51°22.558 2°59.974 10.5236 3.512927 30.113163 -2.871232
2007-04-13 08:29:01 51°22.572 2°59.996 10.5308 3.513859 30.112892 -2.871232
2007-04-13 08:29:06 51°22.587 3°0.018 10.5101 3.51448 30.110429 -2.871232
2007-04-13 08:29:11 51°22.601 3°0.04 10.5152 3.51448 30.110429 -2.871232
2007-04-13 08:29:16 51°22.616 3°0.061 10.5302 3.514998 30.110026 -2.871232
2007-04-13 08:29:21 51°22.629 3°0.083 10.5292 3.515309 30.108415 -2.871232
2007-04-13 08:29:26 51°22.643 3°0.105 10.5377 3.51593 30.12117 -2.871232
2007-04-13 08:29:31 51°22.658 3°0.127 10.5182 3.516552 30.13393 -2.871232
2007-04-13 08:29:36 51°22.671 3°0.149 10.5217 3.516448 30.138278 -2.871232
2007-04-13 08:29:41 51°22.686 3°0.17 10.5286 3.516448 30.138278 -2.871232
2007-04-13 08:29:46 51°22.7 3°0.192 10.5319 3.516034 30.136623 -2.871232
2007-04-13 08:29:51 51°22.714 3°0.213 10.5424 3.515723 30.130621 -2.871232
2007-04-13 08:29:56 51°22.729 3°0.234 10.559 3.515619 30.12659 -2.871232
2007-04-13 08:30:01 51°22.744 3°0.255 10.5714 3.51593 30.128021 -2.871232
2007-04-13 08:30:06 51°22.758 3°0.276 10.5708 3.516241 30.132499 -2.871232
2007-04-13 08:30:11 51°22.773 3°0.297 10.5797 3.516241 30.132499 -2.871232
2007-04-13 08:30:16 51°22.788 3°0.318 10.5689 3.516759 30.138947 -2.871232
2007-04-13 08:30:21 51°22.803 3°0.338 10.572 3.516862 30.136123 -2.871232
2007-04-13 08:30:26 51°22.818 3°0.359 10.5732 3.516862 30.130031 -2.871232
2007-04-13 08:30:31 51°22.832 3°0.38 10.6101 3.516966 30.121882 -2.871232
2007-04-13 08:30:36 51°22.847 3°0.401 10.6715 3.517069 30.113738 -2.871232
2007-04-13 08:30:41 51°22.861 3°0.423 10.6063 3.517069 30.113738 -2.871232
2007-04-13 08:30:46 51°22.876 3°0.444 10.5812 3.517173 30.1094 -2.871232
2007-04-13 08:30:51 51°22.89 3°0.465 10.5712 3.516965 30.106672 -2.871232
2007-04-13 08:30:56 51°22.905 3°0.486 10.5742 3.516655 30.10448 -2.871232
2007-04-13 08:31:01 51°22.92 3°0.507 10.5798 3.516447 30.094155 -2.871232
2007-04-13 08:31:06 51°22.935 3°0.528 10.6037 3.517483 30.079696 -2.871232
2007-04-13 08:31:11 51°22.95 3°0.549 10.6009 3.517483 30.079696 -2.871232
2007-04-13 08:31:16 51°22.964 3°0.571 10.5481 3.517897 30.084386 -2.871232
2007-04-13 08:31:21 51°22.979 3°0.592 10.5558 3.51769 30.093805 -2.871232
2007-04-13 08:31:26 51°22.994 3°0.613 10.5422 3.517172 30.099521 -2.871232
2007-04-13 08:31:31 51°23.008 3°0.635 10.5452 3.517069 30.103096 -2.871232
2007-04-13 08:31:36 51°23.023 3°0.656 10.5424 3.517483 30.102471 -2.871232
2007-04-13 08:31:41 51°23.038 3°0.677 10.5525 3.517483 30.102471 -2.871232
2007-04-13 08:31:46 51°23.052 3°0.699 10.5373 3.518208 30.110116 -2.871232
2007-04-13 08:31:51 51°23.067 3°0.72 10.5498 3.518519 30.126755 -2.871232
2007-04-13 08:31:56 51°23.082 3°0.742 10.5602 3.51883 30.137317 -2.871232
2007-04-13 08:32:01 51°23.097 3°0.763 10.5926 3.519244 30.147347 -2.871232
2007-04-13 08:32:06 51°23.112 3°0.784 10.5466 3.519555 30.152586 -2.871232
2007-04-13 08:32:11 51°23.127 3°0.804 10.6088 3.519555 30.152586 -2.871232
2007-04-13 08:32:15 51°23.139 3°0.818 10.6061 3.519969 30.155763 -2.871232
2007-04-13 08:32:21 51°23.16 3°0.838 10.6019 3.520073 30.159034 -2.871232
2007-04-13 08:32:26 51°23.177 3°0.853 10.609 3.519969 30.156525 -2.871232
2007-04-13 08:32:31 51°23.195 3°0.866 10.5997 3.520073 30.14913 -2.871232
2007-04-13 08:32:36 51°23.213 3°0.877 10.593 3.52028 30.147292 -2.871232
2007-04-13 08:32:40 51°23.227 3°0.885 10.6159 3.52028 30.147292 -2.871232
2007-04-13 08:32:46 51°23.25 3°0.895 10.6316 3.52059 30.139588 -2.871232
2007-04-13 08:32:51 51°23.269 3°0.902 10.6354 3.520797 30.134709 -2.871232
2007-04-13 08:32:56 51°23.288 3°0.908 10.6151 3.520901 30.133411 -2.871232
2007-04-13 08:33:01 51°23.307 3°0.912 10.6243 3.521004 30.128311 -2.871232
2007-04-13 08:33:06 51°23.326 3°0.917 10.6266 3.52059 30.125138 -2.871232
2007-04-13 08:33:11 51°23.345 3°0.921 10.6373 3.52059 30.125138 -2.871232
2007-04-13 08:33:16 51°23.364 3°0.924 10.6379 3.520383 30.115571 -2.871232
2007-04-13 08:33:21 51°23.383 3°0.927 10.6486 3.520383 30.107217 -2.871232
2007-04-13 08:33:26 51°23.403 3°0.93 10.6547 3.520486 30.102127 -2.871232
2007-04-13 08:33:31 51°23.422 3°0.933 10.646 3.520383 30.101144 -2.871232
2007-04-13 08:33:36 51°23.441 3°0.936 10.6468 3.520383 30.100385 -2.871232
2007-04-13 08:33:40 51°23.456 3°0.938 10.6476 3.520383 30.100385 -2.871232
2007-04-13 08:33:46 51°23.48 3°0.942 10.6477 3.520486 30.096815 -2.871232
2007-04-13 08:33:50 51°23.495 3°0.944 10.6541 3.52059 30.091729 -2.871232
2007-04-13 08:33:56 51°23.518 3°0.948 10.6469 3.520797 30.089902 -2.871232
2007-04-13 08:34:00 51°23.533 3°0.951 10.653 3.521004 30.088833 -2.871232
2007-04-13 08:34:06 51°23.556 3°0.955 10.6602 3.521004 30.088075 -2.871232
2007-04-13 08:34:10 51°23.572 3°0.958 10.6564 3.521004 30.088075 -2.871232
2007-04-13 08:34:16 51°23.595 3°0.963 10.6506 3.5209 30.086335 -2.871232
2007-04-13 08:34:20 51°23.61 3°0.966 10.6653 3.5209 30.085577 -2.871232
2007-04-13 08:34:26 51°23.634 3°0.97 10.6415 3.521004 30.083527 -2.871232
2007-04-13 08:34:31 51°23.653 3°0.974 10.6429 3.521004 30.080496 -2.871232
2007-04-13 08:34:36 51°23.672 3°0.978 10.6375 3.521004 30.078223 -2.871232
2007-04-13 08:34:40 51°23.687 3°0.981 10.629 3.521004 30.078223 -2.871232
2007-04-13 08:34:46 51°23.711 3°0.985 10.625 3.521107 30.079205 -2.871232
2007-04-13 08:34:50 51°23.726 3°0.988 10.6119 3.521107 30.079962 -2.871232
2007-04-13 08:34:56 51°23.749 3°0.993 10.6063 3.521211 30.080187 -2.871232
2007-04-13 08:35:00 51°23.765 3°0.996 10.5968 3.521314 30.085715 -2.871232
2007-04-13 08:35:06 51°23.788 3°1.001 10.5948 3.521314 30.088747 -2.871232
2007-04-13 08:35:10 51°23.803 3°1.005 10.565 3.521314 30.088747 -2.871232
2007-04-13 08:35:16 51°23.826 3°1.01 10.558 3.521211 30.093831 -2.871232
2007-04-13 08:35:20 51°23.842 3°1.013 10.5553 3.521004 30.10021 -2.871232
2007-04-13 08:35:26 51°23.865 3°1.018 10.5583 3.521004 30.104004 -2.871232
2007-04-13 08:35:31 51°23.884 3°1.022 10.5259 3.521108 30.110301 -2.871232
2007-04-13 08:35:36 51°23.904 3°1.027 10.4987 3.521108 30.119415 -2.871232
2007-04-13 08:35:40 51°23.919 3°1.03 10.508 3.521108 30.119415 -2.871232
2007-04-13 08:35:46 51°23.943 3°1.035 10.4919 3.520901 30.130369 -2.871232
2007-04-13 08:35:51 51°23.962 3°1.04 10.4773 3.520694 30.140572 -2.871232
2007-04-13 08:35:56 51°23.982 3°1.044 10.4802 3.520694 30.147422 -2.871232
2007-04-13 08:36:00 51°23.997 3°1.048 10.4885 3.520798 30.159068 -2.871232
2007-04-13 08:36:06 51°24.02 3°1.053 10.486 3.520798 30.179654 -2.871232
2007-04-13 08:36:10 51°24.036 3°1.057 10.4969 3.520798 30.179654 -2.871232
2007-04-13 08:36:16 51°24.059 3°1.062 10.5131 3.520694 30.190117 -2.871232
2007-04-13 08:36:20 51°24.075 3°1.066 10.5071 3.520384 30.197852 -2.871232
2007-04-13 08:36:26 51°24.098 3°1.071 10.5217 3.519659 30.20012 -2.871232
2007-04-13 08:36:30 51°24.114 3°1.075 10.5301 3.519038 30.195731 -2.871232
2007-04-13 08:36:36 51°24.137 3°1.081 10.5237 3.51852 30.1908 -2.871232
2007-04-13 08:36:40 51°24.153 3°1.085 10.5167 3.51852 30.1908 -2.871232
2007-04-13 08:36:46 51°24.176 3°1.09 10.5169 3.518106 30.183035 -2.871232
2007-04-13 08:36:51 51°24.195 3°1.095 10.5098 3.517795 30.173968 -2.871232
2007-04-13 08:36:56 51°24.214 3°1.1 10.5105 3.517588 30.167417 -2.871232
2007-04-13 08:37:00 51°24.23 3°1.104 10.4973 3.517795 30.161759 -2.871232
2007-04-13 08:37:06 51°24.253 3°1.109 10.4682 3.518312 30.164398 -2.871232
2007-04-13 08:37:10 51°24.268 3°1.112 10.4356 3.518312 30.164398 -2.871232
2007-04-13 08:37:16 51°24.292 3°1.116 10.4234 3.518727 30.169865 -2.871232
2007-04-13 08:37:20 51°24.307 3°1.119 10.4067 3.519141 30.175333 -2.871232
2007-04-13 08:37:26 51°24.33 3°1.123 10.4055 3.519866 30.183759 -2.871232
2007-04-13 08:37:30 51°24.345 3°1.126 10.3865 3.520798 30.196448 -2.871232
2007-04-13 08:37:36 51°24.367 3°1.131 10.3749 3.521523 30.215578 -2.871232
2007-04-13 08:37:40 51°24.382 3°1.134 10.3776 3.521523 30.215578 -2.871232
2007-04-13 08:37:46 51°24.404 3°1.14 10.3617 3.522352 30.2449 -2.871232
2007-04-13 08:37:50 51°24.419 3°1.143 10.3365 3.523284 30.270649 -2.871232
2007-04-13 08:37:56 51°24.442 3°1.149 10.3309 3.52432 30.298184 -2.871232
2007-04-13 08:38:00 51°24.456 3°1.153 10.3136 3.526185 30.329047 -2.871232
2007-04-13 08:38:06 51°24.479 3°1.157 10.3273 3.529189 30.371591 -2.871232
2007-04-13 08:38:10 51°24.494 3°1.161 10.309 3.529189 30.371591 -2.871232
2007-04-13 08:38:16 51°24.516 3°1.166 10.268 3.534264 30.428568 -2.871232
2007-04-13 08:38:20 51°24.531 3°1.17 10.2437 3.53996 30.493855 -2.871232
2007-04-13 08:38:26 51°24.553 3°1.174 10.2274 3.545035 30.556363 -2.871232
2007-04-13 08:38:31 51°24.572 3°1.178 10.2299 3.548868 30.60237 -2.871232
2007-04-13 08:38:36 51°24.59 3°1.182 10.2523 3.553114 30.65238 -2.871232
2007-04-13 08:38:40 51°24.605 3°1.185 10.2276 3.553114 30.65238 -2.871232
2007-04-13 08:38:46 51°24.627 3°1.19 10.2234 3.555911 30.691657 -2.871232
2007-04-13 08:38:51 51°24.646 3°1.194 10.2332 3.558501 30.737589 -2.871232
2007-04-13 08:38:56 51°24.664 3°1.198 10.2193 3.560366 30.775845 -2.871232
2007-04-13 08:39:00 51°24.679 3°1.201 10.2347 3.561402 30.801483 -2.871232
2007-04-13 08:39:06 51°24.701 3°1.206 10.231 3.561609 30.80897 -2.871232
2007-04-13 08:39:11 51°24.72 3°1.21 10.2343 3.561609 30.80897 -2.871232
2007-04-13 08:39:16 51°24.738 3°1.214 10.2398 3.562748 30.826202 -2.871232
2007-04-13 08:39:20 51°24.753 3°1.217 10.2353 3.563473 30.838674 -2.871232
2007-04-13 08:39:26 51°24.775 3°1.222 10.2337 3.563577 30.84203 -2.871232
2007-04-13 08:39:31 51°24.794 3°1.226 10.2462 3.563577 30.843603 -2.871232
2007-04-13 08:39:36 51°24.812 3°1.23 10.2473 3.563784 30.845595 -2.871232
2007-04-13 08:39:40 51°24.827 3°1.234 10.2607 3.563784 30.845595 -2.871232
2007-04-13 08:39:46 51°24.849 3°1.239 10.2552 3.563888 30.845803 -2.871232
2007-04-13 08:39:51 51°24.868 3°1.243 10.2662 3.564095 30.845434 -2.871232
2007-04-13 08:39:56 51°24.886 3°1.247 10.2795 3.563991 30.842865 -2.871232
2007-04-13 08:40:00 51°24.901 3°1.25 10.2542 3.563888 30.840296 -2.871232
2007-04-13 08:40:06 51°24.923 3°1.255 10.2489 3.56368 30.834373 -2.871232
2007-04-13 08:40:10 51°24.938 3°1.258 10.2608 3.56368 30.834373 -2.871232
2007-04-13 08:40:16 51°24.96 3°1.263 10.266 3.56368 30.829656 -2.871232
2007-04-13 08:40:20 51°24.975 3°1.267 10.2648 3.563887 30.82693 -2.871232
2007-04-13 08:40:26 51°24.997 3°1.272 10.2593 3.564198 30.8252 -2.871232
2007-04-13 08:40:30 51°25.012 3°1.276 10.2717 3.564923 30.831377 -2.871232
2007-04-13 08:40:36 51°25.034 3°1.281 10.27 3.565234 30.835934 -2.871232
2007-04-13 08:40:40 51°25.049 3°1.285 10.2876 3.565234 30.835934 -2.871232
2007-04-13 08:40:46 51°25.071 3°1.29 10.28 3.565337 30.836142 -2.871232
2007-04-13 08:40:51 51°25.089 3°1.294 10.2865 3.565545 30.834988 -2.871232
2007-04-13 08:40:56 51°25.108 3°1.299 10.2838 3.565752 30.83855 -2.871232
2007-04-13 08:41:00 51°25.123 3°1.302 10.2603 3.565855 30.838758 -2.871232
2007-04-13 08:41:06 51°25.145 3°1.307 10.2611 3.566062 30.837604 -2.871232
2007-04-13 08:41:11 51°25.164 3°1.311 10.249 3.566062 30.837604 -2.871232
2007-04-13 08:41:16 51°25.182 3°1.316 10.2385 3.566891 30.84006 -2.871232
2007-04-13 08:41:20 51°25.197 3°1.32 10.2239 3.567616 30.844664 -2.871232
2007-04-13 08:41:26 51°25.219 3°1.325 10.2161 3.568548 30.850471 -2.871232
2007-04-13 08:41:30 51°25.234 3°1.328 10.2166 3.569377 30.860785 -2.871232
2007-04-13 08:41:36 51°25.256 3°1.333 10.1827 3.569791 30.872629 -2.871232
2007-04-13 08:41:40 51°25.271 3°1.337 10.1743 3.569791 30.872629 -2.871232
2007-04-13 08:41:46 51°25.293 3°1.342 10.1737 3.569998 30.881702 -2.871232
2007-04-13 08:41:50 51°25.308 3°1.345 10.1802 3.569999 30.893515 -2.871232
2007-04-13 08:41:56 51°25.33 3°1.351 10.1885 3.569895 30.902764 -2.871232
2007-04-13 08:42:00 51°25.345 3°1.354 10.1791 3.569688 30.908657 -2.871232
2007-04-13 08:42:06 51°25.367 3°1.361 10.1707 3.569481 30.916921 -2.871232
2007-04-13 08:42:10 51°25.382 3°1.367 10.1516 3.569481 30.916921 -2.871232
2007-04-13 08:42:16 51°25.404 3°1.377 10.1351 3.569274 30.92835 -2.871232
2007-04-13 08:42:20 51°25.418 3°1.385 10.1371 3.568756 30.932846 -2.871232
2007-04-13 08:42:26 51°25.439 3°1.397 10.124 3.568549 30.934013 -2.871232
2007-04-13 08:42:30 51°25.454 3°1.405 10.1259 3.568342 30.93518 -2.871232
2007-04-13 08:42:36 51°25.475 3°1.419 10.1396 3.568135 30.937928 -2.871232
2007-04-13 08:42:40 51°25.489 3°1.428 10.1169 3.568135 30.937928 -2.871232
2007-04-13 08:42:46 51°25.51 3°1.442 10.1078 3.567824 30.943635 -2.871232
2007-04-13 08:42:50 51°25.524 3°1.451 10.1053 3.567307 30.94814 -2.871232
2007-04-13 08:42:55 51°25.542 3°1.463 10.1076 3.566996 30.953062 -2.871232
2007-04-13 08:43:00 51°25.559 3°1.475 10.0984 3.566582 30.954611 -2.871232
2007-04-13 08:43:06 51°25.58 3°1.489 10.0952 3.566168 30.952202 -2.871232
2007-04-13 08:43:10 51°25.594 3°1.499 10.0821 3.566168 30.952202 -2.871232
2007-04-13 08:43:16 51°25.616 3°1.512 10.0818 3.566064 30.956747 -2.871232
2007-04-13 08:43:20 51°25.63 3°1.522 10.0837 3.565546 30.958885 -2.871232
2007-04-13 08:43:26 51°25.651 3°1.536 10.0837 3.565236 30.963021 -2.871232
2007-04-13 08:43:30 51°25.665 3°1.546 10.0647 3.564925 30.966367 -2.871232
2007-04-13 08:43:36 51°25.686 3°1.56 10.0673 3.564718 30.969126 -2.871232
2007-04-13 08:43:40 51°25.7 3°1.57 10.0882 3.564718 30.969126 -2.871232
2007-04-13 08:43:46 51°25.721 3°1.584 10.0792 3.564407 30.973268 -2.871232
2007-04-13 08:43:50 51°25.736 3°1.593 10.0695 3.564097 30.97503 -2.871232
2007-04-13 08:43:55 51°25.753 3°1.605 10.0733 3.563889 30.973031 -2.871232
2007-04-13 08:44:00 51°25.771 3°1.617 10.0765 3.563993 30.978793 -2.871232
2007-04-13 08:44:06 51°25.792 3°1.631 10.0584 3.56389 30.982557 -2.871232
2007-04-13 08:44:10 51°25.806 3°1.64 10.079 3.56389 30.982557 -2.871232
2007-04-13 08:44:16 51°25.828 3°1.654 10.063 3.563579 30.977969 -2.871232
2007-04-13 08:44:20 51°25.842 3°1.664 10.0592 3.563682 30.980557 -2.871232
2007-04-13 08:44:25 51°25.86 3°1.675 10.0786 3.563682 30.983734 -2.871232
2007-04-13 08:44:30 51°25.877 3°1.686 10.062 3.563682 30.984528 -2.871232
2007-04-13 08:44:36 51°25.899 3°1.7 10.0606 3.563786 30.987911 -2.871232
2007-04-13 08:44:40 51°25.913 3°1.71 10.0577 3.563786 30.987911 -2.871232
2007-04-13 08:44:45 51°25.93 3°1.722 10.0486 3.563683 30.9885 -2.871232
2007-04-13 08:44:50 51°25.948 3°1.734 10.0509 3.563683 30.989294 -2.871232
2007-04-13 08:44:56 51°25.969 3°1.75 10.0589 3.563683 30.989294 -2.871232
2007-04-13 08:45:00 51°25.983 3°1.761 10.0644 3.563786 30.9895 -2.871232
2007-04-13 08:45:06 51°26.003 3°1.778 10.0433 3.563683 30.991678 -2.871232
2007-04-13 08:45:10 51°26.017 3°1.789 10.0286 3.563683 30.991678 -2.871232
2007-04-13 08:45:16 51°26.038 3°1.807 10.0403 3.563579 30.994651 -2.871232
2007-04-13 08:45:20 51°26.051 3°1.818 10.0258 3.563475 30.99683 -2.871232
2007-04-13 08:45:26 51°26.072 3°1.836 10.0137 3.563165 30.993828 -2.871232
2007-04-13 08:45:31 51°26.089 3°1.851 10.0186 3.563061 30.992033 -2.871232
2007-04-13 08:45:36 51°26.106 3°1.866 10.0154 3.563165 30.997008 -2.871232
2007-04-13 08:45:40 51°26.119 3°1.878 10.0095 3.563165 30.997008 -2.871232
2007-04-13 08:45:46 51°26.14 3°1.896 10.0156 3.562751 31.000162 -2.871232
2007-04-13 08:45:50 51°26.154 3°1.907 10.0011 3.562336 31.000135 -2.871232
2007-04-13 08:45:56 51°26.174 3°1.925 10.0104 3.562026 31.004292 -2.871232
2007-04-13 08:46:01 51°26.192 3°1.939 10.0163 3.561715 31.006859 -2.871232
2007-04-13 08:46:06 51°26.209 3°1.954 10.0219 3.561197 31.005035 -2.871232
2007-04-13 08:46:10 51°26.222 3°1.965 10.0032 3.561197 31.005035 -2.871232
2007-04-13 08:46:16 51°26.243 3°1.983 10.0085 3.56099 31.007809 -2.871232
2007-04-13 08:46:20 51°26.257 3°1.995 10.0095 3.560679 31.007192 -2.871232
2007-04-13 08:46:26 51°26.278 3°2.013 9.9998 3.560576 31.00858 -2.871232
2007-04-13 08:46:30 51°26.291 3°2.026 10.0033 3.560472 31.007578 -2.871232
2007-04-13 08:46:35 51°26.308 3°2.042 10.0206 3.560576 31.005395 -2.871232
2007-04-13 08:46:40 51°26.324 3°2.058 10.0082 3.560576 31.005395 -2.871232
2007-04-13 08:46:45 51°26.341 3°2.075 10.0149 3.560783 31.008194 -2.871232
2007-04-13 08:46:50 51°26.358 3°2.092 10.0129 3.560783 31.00899 -2.871232
2007-04-13 08:46:56 51°26.378 3°2.111 10.01 3.560887 31.013178 -2.871232
2007-04-13 08:47:00 51°26.391 3°2.125 10.0039 3.560887 31.015568 -2.871232
2007-04-13 08:47:06 51°26.411 3°2.144 10.0095 3.560679 31.010378 -2.871232
2007-04-13 08:47:10 51°26.424 3°2.158 10.0044 3.560679 31.010378 -2.871232
2007-04-13 08:47:15 51°26.441 3°2.174 10.0061 3.560783 31.009787 -2.871232
2007-04-13 08:47:20 51°26.458 3°2.191 10.0311 3.560887 31.011585 -2.871232
2007-04-13 08:47:25 51°26.475 3°2.207 10.0417 3.560783 31.012176 -2.871232
2007-04-13 08:47:30 51°26.491 3°2.223 10.0266 3.56068 31.012767 -2.871232
2007-04-13 08:47:35 51°26.508 3°2.239 10.035 3.56068 31.01436 -2.871232
2007-04-13 08:47:40 51°26.525 3°2.256 10.0318 3.56068 31.01436 -2.871232
2007-04-13 08:47:45 51°26.541 3°2.272 10.0439 3.56099 31.018163 -2.871232
2007-04-13 08:47:50 51°26.558 3°2.289 10.0377 3.561197 31.016183 -2.871232
2007-04-13 08:47:55 51°26.575 3°2.304 10.0508 3.561715 31.014024 -2.871232
2007-04-13 08:48:00 51°26.592 3°2.321 10.0607 3.562233 31.013458 -2.871232
2007-04-13 08:48:05 51°26.609 3°2.337 10.0552 3.562751 31.016077 -2.871232
2007-04-13 08:48:10 51°26.625 3°2.354 10.0681 3.562751 31.016077 -2.871232
2007-04-13 08:48:15 51°26.642 3°2.369 10.0743 3.562958 31.014895 -2.871232
2007-04-13 08:48:20 51°26.659 3°2.386 10.0847 3.563269 31.014715 -2.871232
2007-04-13 08:48:25 51°26.676 3°2.402 10.089 3.563476 31.012738 -2.871232
2007-04-13 08:48:30 51°26.692 3°2.418 10.0893 3.560783 30.981146 -2.871232
2007-04-13 08:48:35 51°26.709 3°2.434 10.0936 3.563993 31.006604 -2.871232
2007-04-13 08:48:40 51°26.726 3°2.45 10.0973 3.563993 31.006604 -2.871232
2007-04-13 08:48:45 51°26.742 3°2.468 10.1061 3.564408 31.005041 -2.871232
2007-04-13 08:48:50 51°26.758 3°2.485 10.1005 3.564615 30.999092 -2.871232
2007-04-13 08:48:55 51°26.774 3°2.504 10.0954 3.565029 30.996736 -2.871232
2007-04-13 08:49:00 51°26.79 3°2.522 10.0834 3.56534 30.994969 -2.871232
2007-04-13 08:49:05 51°26.806 3°2.541 10.0802 3.565547 30.994586 -2.871232
2007-04-13 08:49:10 51°26.821 3°2.56 10.0912 3.565547 30.994586 -2.871232
2007-04-13 08:49:15 51°26.837 3°2.579 10.0877 3.565754 30.992615 -2.871232
2007-04-13 08:49:20 51°26.853 3°2.598 10.101 3.565754 30.988644 -2.871232
2007-04-13 08:49:25 51°26.869 3°2.616 10.0992 3.565961 30.989056 -2.871232
2007-04-13 08:49:30 51°26.884 3°2.636 10.0991 3.566065 30.995614 -2.871232
2007-04-13 08:49:35 51°26.9 3°2.655 10.0937 3.565857 30.996792 -2.871232
2007-04-13 08:49:40 51°26.915 3°2.674 10.1006 3.565857 30.996792 -2.871232
2007-04-13 08:49:45 51°26.931 3°2.693 10.1001 3.565754 30.994203 -2.871232
2007-04-13 08:49:50 51°26.946 3°2.712 10.1038 3.565857 30.993614 -2.871232
2007-04-13 08:49:56 51°26.965 3°2.735 10.1111 3.565857 30.990438 -2.871232
2007-04-13 08:50:00 51°26.978 3°2.751 10.1089 3.566168 30.991849 -2.871232
2007-04-13 08:50:06 51°26.996 3°2.774 10.1003 3.566375 30.993055 -2.871232
2007-04-13 08:50:10 51°27.009 3°2.789 10.0945 3.566375 30.993055 -2.871232
2007-04-13 08:50:16 51°27.027 3°2.812 10.0855 3.566582 30.99426 -2.871232
2007-04-13 08:50:20 51°27.04 3°2.827 10.0843 3.566686 30.993672 -2.871232
2007-04-13 08:50:26 51°27.059 3°2.85 10.0907 3.566893 30.991701 -2.871232
2007-04-13 08:50:31 51°27.075 3°2.87 10.0921 3.567204 30.992318 -2.871232
2007-04-13 08:50:36 51°27.09 3°2.889 10.0818 3.567515 30.996905 -2.871232
2007-04-13 08:50:40 51°27.103 3°2.904 10.0802 3.567515 30.996905 -2.871232
2007-04-13 08:50:46 51°27.121 3°2.927 10.0775 3.567618 31.002668 -2.871232
2007-04-13 08:50:50 51°27.134 3°2.942 10.0765 3.567722 31.009229 -2.871232
2007-04-13 08:50:56 51°27.153 3°2.965 10.0761 3.567618 31.010613 -2.871232
2007-04-13 08:51:00 51°27.165 3°2.98 10.0608 3.567722 31.013202 -2.871232
2007-04-13 08:51:06 51°27.184 3°3.003 10.0512 3.568033 31.018586 -2.871232
2007-04-13 08:51:10 51°27.197 3°3.018 10.0542 3.568033 31.018586 -2.871232
2007-04-13 08:51:16 51°27.216 3°3.041 10.04 3.568033 31.020176 -2.871232
2007-04-13 08:51:20 51°27.228 3°3.056 10.0329 3.568033 31.023357 -2.871232
2007-04-13 08:51:25 51°27.244 3°3.075 10.0442 3.568033 31.023357 -2.871232
2007-04-13 08:51:30 51°27.26 3°3.094 10.0612 3.567929 31.027128 -2.871232
2007-04-13 08:51:36 51°27.279 3°3.116 10.043 3.567722 31.032287 -2.871232
2007-04-13 08:51:40 51°27.291 3°3.131 10.0656 3.567722 31.032287 -2.871232
2007-04-13 08:51:46 51°27.31 3°3.154 10.0782 3.567515 31.035061 -2.871232
2007-04-13 08:51:50 51°27.323 3°3.169 10.08 3.567204 31.037631 -2.871232
2007-04-13 08:51:55 51°27.339 3°3.188 10.0986 3.566894 31.040202 -2.871232
2007-04-13 08:52:00 51°27.354 3°3.207 10.1214 3.566479 31.035401 -2.871232
2007-04-13 08:52:06 51°27.373 3°3.229 10.1165 3.566687 31.035811 -2.871232
2007-04-13 08:52:10 51°27.386 3°3.244 10.1285 3.566687 31.035811 -2.871232
2007-04-13 08:52:16 51°27.405 3°3.267 10.1389 3.566583 31.028442 -2.871232
2007-04-13 08:52:20 51°27.418 3°3.282 10.1434 3.56679 31.021691 -2.871232
2007-04-13 08:52:25 51°27.434 3°3.3 10.1602 3.566893 31.013944 -2.871232
2007-04-13 08:52:30 51°27.449 3°3.318 10.1686 3.5671 31.004819 -2.871232
2007-04-13 08:52:36 51°27.468 3°3.34 10.1771 3.567307 30.998081 -2.871232
2007-04-13 08:52:40 51°27.481 3°3.355 10.1843 3.567307 30.998081 -2.871232
2007-04-13 08:52:46 51°27.5 3°3.378 10.1893 3.567514 30.989761 -2.871232
2007-04-13 08:52:50 51°27.513 3°3.393 10.1891 3.567721 30.983033 -2.871232
2007-04-13 08:52:56 51°27.531 3°3.415 10.1987 3.567825 30.972931 -2.871232
2007-04-13 08:53:00 51°27.544 3°3.43 10.199 3.568032 30.962252 -2.871232